PWSweather.com
Personal Weather Stations
Station Observations
WEERALK
AlkmaarNL 1827 PE

AlkmaarNL 1827 PE

Lat: 52.6712679, Lon: 4.7682444

Elevation: 7

Station Type: Davis Vantage Pro2

Latest ConditionsUpdated 8:00:07 AM GMT+01:01 Tuesday, Oct 21, 2014
Currently Today's Max Today's Min Today's Average
Temperature 55.2°F12.9°C 58.6°F14.8°C 55.2°F12.9°C 57.7°F14.3°C
Dew Point 53.6°F12.0°C 55.2°F12.9°C 53.4°F11.9°C 54.2°F12.3°C
Winds 7.0 mph SSW11.3 kmh SSW 9.0 mph SW14.5 kmh SW - 6.5 mph 10.5 kmh
Wind Gusts 17.0 mph27.4 kmh 18.0 mph29.0 kmh - -
Humidity 94% 94% 85% 88%
Pressure 29.56 in1001.0 mb 29.81 in1009.5 mb 29.56 in1001.0 mb -
Precipitation - 0.13 in3.3 mm - -
Hour Temp Dew Point Humidity Winds Wind Gusts Pressure Precip Precip Rate Daily Precip Total
08:00 AM 55.2°F12.9°C 53.6°F12.0°C 94% 7.0 mph SSW11.3 kmh SSW 17.0 mph27.4 kmh 29.56 in1001.0 mb 0.09 in2.3 mm 0.00 in/hr0.0 mm/hr 0.13 in3.3 mm
07:59 AM 55.2°F12.9°C 53.6°F12.0°C 94% 7.0 mph SSW11.3 kmh SSW 17.0 mph27.4 kmh 29.56 in1001.0 mb 0.09 in2.3 mm 0.00 in/hr0.0 mm/hr 0.13 in3.3 mm
07:58 AM 55.4°F13.0°C 53.8°F12.1°C 94% 7.0 mph SSW11.3 kmh SSW 17.0 mph27.4 kmh 29.56 in1001.0 mb 0.09 in2.3 mm 0.00 in/hr0.0 mm/hr 0.13 in3.3 mm
07:57 AM 55.4°F13.0°C 53.8°F12.1°C 94% 7.0 mph SSW11.3 kmh SSW 17.0 mph27.4 kmh 29.56 in1001.0 mb 0.09 in2.3 mm 0.00 in/hr0.0 mm/hr 0.13 in3.3 mm
07:56 AM 55.4°F13.0°C 53.8°F12.1°C 94% 7.0 mph SSW11.3 kmh SSW 17.0 mph27.4 kmh 29.56 in1001.0 mb 0.09 in2.3 mm 0.00 in/hr0.0 mm/hr 0.13 in3.3 mm
07:55 AM 55.4°F13.0°C 53.8°F12.1°C 94% 7.0 mph SSW11.3 kmh SSW 17.0 mph27.4 kmh 29.56 in1001.0 mb 0.09 in2.3 mm 0.00 in/hr0.0 mm/hr 0.13 in3.3 mm
07:54 AM 55.4°F13.0°C 53.8°F12.1°C 94% 7.0 mph SSW11.3 kmh SSW 17.0 mph27.4 kmh 29.57 in1001.4 mb 0.09 in2.3 mm 0.00 in/hr0.0 mm/hr 0.13 in3.3 mm
07:53 AM 55.4°F13.0°C 53.8°F12.1°C 94% 8.0 mph SSW12.9 kmh SSW 17.0 mph27.4 kmh 29.57 in1001.4 mb 0.09 in2.3 mm 0.00 in/hr0.0 mm/hr 0.12 in3.0 mm
07:52 AM 55.4°F13.0°C 53.8°F12.1°C 94% 8.0 mph SSW12.9 kmh SSW 17.0 mph27.4 kmh 29.57 in1001.4 mb 0.09 in2.3 mm 0.00 in/hr0.0 mm/hr 0.12 in3.0 mm
07:51 AM 55.4°F13.0°C 53.8°F12.1°C 94% 8.0 mph SW12.9 kmh SW 17.0 mph27.4 kmh 29.57 in1001.4 mb 0.09 in2.3 mm 0.60 in/hr15.2 mm/hr 0.12 in3.0 mm
07:50 AM 55.6°F13.1°C 53.8°F12.1°C 94% 8.0 mph SW12.9 kmh SW 17.0 mph27.4 kmh 29.57 in1001.4 mb 0.08 in2.0 mm 0.00 in/hr0.0 mm/hr 0.11 in2.8 mm
07:49 AM 55.6°F13.1°C 53.8°F12.1°C 94% 8.0 mph SW12.9 kmh SW 15.0 mph24.1 kmh 29.57 in1001.4 mb 0.08 in2.0 mm 0.00 in/hr0.0 mm/hr 0.11 in2.8 mm
07:48 AM 55.6°F13.1°C 53.8°F12.1°C 94% 7.0 mph SW11.3 kmh SW 15.0 mph24.1 kmh 29.57 in1001.4 mb 0.08 in2.0 mm 0.00 in/hr0.0 mm/hr 0.11 in2.8 mm
07:47 AM 55.6°F13.1°C 53.8°F12.1°C 94% 7.0 mph SW11.3 kmh SW 14.0 mph22.5 kmh 29.57 in1001.4 mb 0.08 in2.0 mm 0.00 in/hr0.0 mm/hr 0.11 in2.8 mm
07:46 AM 55.6°F13.1°C 53.8°F12.1°C 94% 8.0 mph SW12.9 kmh SW 16.0 mph25.7 kmh 29.57 in1001.4 mb 0.08 in2.0 mm 0.00 in/hr0.0 mm/hr 0.11 in2.8 mm
07:45 AM 55.6°F13.1°C 53.8°F12.1°C 94% 8.0 mph SW12.9 kmh SW 17.0 mph27.4 kmh 29.58 in1001.7 mb 0.08 in2.0 mm 0.60 in/hr15.2 mm/hr 0.11 in2.8 mm
07:44 AM 55.6°F13.1°C 54.0°F12.2°C 94% 8.0 mph SW12.9 kmh SW 17.0 mph27.4 kmh 29.58 in1001.7 mb 0.07 in1.8 mm 0.00 in/hr0.0 mm/hr 0.10 in2.5 mm
07:43 AM 55.6°F13.1°C 54.0°F12.2°C 94% 8.0 mph SW12.9 kmh SW 17.0 mph27.4 kmh 29.58 in1001.7 mb 0.07 in1.8 mm 0.60 in/hr15.2 mm/hr 0.10 in2.5 mm
07:42 AM 55.6°F13.1°C 53.6°F12.0°C 93% 8.0 mph SW12.9 kmh SW 17.0 mph27.4 kmh 29.58 in1001.7 mb 0.06 in1.5 mm 0.00 in/hr0.0 mm/hr 0.09 in2.3 mm
07:41 AM 55.8°F13.2°C 53.8°F12.1°C 93% 8.0 mph SW12.9 kmh SW 17.0 mph27.4 kmh 29.58 in1001.7 mb 0.06 in1.5 mm 0.00 in/hr0.0 mm/hr 0.09 in2.3 mm
07:40 AM 55.8°F13.2°C 53.8°F12.1°C 93% 8.0 mph SW12.9 kmh SW 17.0 mph27.4 kmh 29.58 in1001.7 mb 0.07 in1.8 mm 0.00 in/hr0.0 mm/hr 0.09 in2.3 mm
07:39 AM 55.8°F13.2°C 53.8°F12.1°C 93% 8.0 mph SSW12.9 kmh SSW 17.0 mph27.4 kmh 29.58 in1001.7 mb 0.07 in1.8 mm 0.00 in/hr0.0 mm/hr 0.08 in2.0 mm
07:38 AM 55.8°F13.2°C 53.8°F12.1°C 93% 8.0 mph SSW12.9 kmh SSW 17.0 mph27.4 kmh 29.58 in1001.7 mb 0.07 in1.8 mm 0.00 in/hr0.0 mm/hr 0.08 in2.0 mm
07:37 AM 55.8°F13.2°C 53.8°F12.1°C 93% 8.0 mph SSW12.9 kmh SSW 17.0 mph27.4 kmh 29.58 in1001.7 mb 0.07 in1.8 mm 0.00 in/hr0.0 mm/hr 0.08 in2.0 mm
07:36 AM 55.8°F13.2°C 53.8°F12.1°C 93% 8.0 mph SSW12.9 kmh SSW 17.0 mph27.4 kmh 29.58 in1001.7 mb 0.07 in1.8 mm 0.60 in/hr15.2 mm/hr 0.08 in2.0 mm
07:35 AM 55.9°F13.3°C 54.0°F12.2°C 93% 8.0 mph SSW12.9 kmh SSW 16.0 mph25.7 kmh 29.59 in1002.0 mb 0.06 in1.5 mm 0.00 in/hr0.0 mm/hr 0.07 in1.8 mm
07:34 AM 55.9°F13.3°C 54.0°F12.2°C 93% 7.0 mph SSW11.3 kmh SSW 16.0 mph25.7 kmh 29.59 in1002.0 mb 0.06 in1.5 mm 0.00 in/hr0.0 mm/hr 0.07 in1.8 mm
07:33 AM 55.9°F13.3°C 54.0°F12.2°C 93% 7.0 mph SSW11.3 kmh SSW 14.0 mph22.5 kmh 29.58 in1001.7 mb 0.06 in1.5 mm 0.00 in/hr0.0 mm/hr 0.07 in1.8 mm
07:32 AM 55.9°F13.3°C 54.0°F12.2°C 93% 7.0 mph SSW11.3 kmh SSW 14.0 mph22.5 kmh 29.58 in1001.7 mb 0.06 in1.5 mm 0.00 in/hr0.0 mm/hr 0.07 in1.8 mm
07:31 AM 56.1°F13.4°C 54.1°F12.3°C 93% 7.0 mph SW11.3 kmh SW 14.0 mph22.5 kmh 29.58 in1001.7 mb 0.06 in1.5 mm 0.00 in/hr0.0 mm/hr 0.07 in1.8 mm
07:30 AM 56.1°F13.4°C 54.1°F12.3°C 93% 6.0 mph SW9.7 kmh SW 13.0 mph20.9 kmh 29.59 in1002.0 mb 0.06 in1.5 mm 0.00 in/hr0.0 mm/hr 0.07 in1.8 mm
07:29 AM 56.1°F13.4°C 54.1°F12.3°C 93% 6.0 mph SW9.7 kmh SW 13.0 mph20.9 kmh 29.59 in1002.0 mb 0.06 in1.5 mm 0.00 in/hr0.0 mm/hr 0.06 in1.5 mm
07:28 AM 56.1°F13.4°C 54.1°F12.3°C 93% 6.0 mph SW9.7 kmh SW 13.0 mph20.9 kmh 29.58 in1001.7 mb 0.06 in1.5 mm 0.00 in/hr0.0 mm/hr 0.06 in1.5 mm
07:27 AM 56.1°F13.4°C 54.1°F12.3°C 93% 6.0 mph SW9.7 kmh SW 12.0 mph19.3 kmh 29.58 in1001.7 mb 0.06 in1.5 mm 0.00 in/hr0.0 mm/hr 0.06 in1.5 mm
07:26 AM 56.1°F13.4°C 54.1°F12.3°C 93% 6.0 mph SW9.7 kmh SW 13.0 mph20.9 kmh 29.58 in1001.7 mb 0.06 in1.5 mm 0.00 in/hr0.0 mm/hr 0.06 in1.5 mm
07:25 AM 56.1°F13.4°C 54.1°F12.3°C 93% 6.0 mph SW9.7 kmh SW 13.0 mph20.9 kmh 29.58 in1001.7 mb 0.06 in1.5 mm 0.00 in/hr0.0 mm/hr 0.06 in1.5 mm
07:24 AM 56.3°F13.5°C 54.3°F12.4°C 93% 6.0 mph SW9.7 kmh SW 13.0 mph20.9 kmh 29.58 in1001.7 mb 0.06 in1.5 mm 0.00 in/hr0.0 mm/hr 0.06 in1.5 mm
07:23 AM 56.3°F13.5°C 54.3°F12.4°C 93% 7.0 mph SW11.3 kmh SW 13.0 mph20.9 kmh 29.58 in1001.7 mb 0.06 in1.5 mm 0.00 in/hr0.0 mm/hr 0.06 in1.5 mm
07:22 AM 56.3°F13.5°C 54.3°F12.4°C 93% 7.0 mph SW11.3 kmh SW 13.0 mph20.9 kmh 29.59 in1002.0 mb 0.06 in1.5 mm 0.60 in/hr15.2 mm/hr 0.06 in1.5 mm
07:21 AM 56.3°F13.5°C 54.3°F12.4°C 93% 7.0 mph SW11.3 kmh SW 13.0 mph20.9 kmh 29.58 in1001.7 mb 0.05 in1.3 mm 0.00 in/hr0.0 mm/hr 0.06 in1.5 mm
07:20 AM 56.3°F13.5°C 54.3°F12.4°C 93% 7.0 mph SW11.3 kmh SW 13.0 mph20.9 kmh 29.59 in1002.0 mb 0.05 in1.3 mm 0.00 in/hr0.0 mm/hr 0.06 in1.5 mm
07:19 AM 56.3°F13.5°C 54.3°F12.4°C 93% 7.0 mph SW11.3 kmh SW 13.0 mph20.9 kmh 29.59 in1002.0 mb 0.05 in1.3 mm 0.00 in/hr0.0 mm/hr 0.06 in1.5 mm
07:18 AM 56.3°F13.5°C 54.3°F12.4°C 93% 7.0 mph SW11.3 kmh SW 14.0 mph22.5 kmh 29.59 in1002.0 mb 0.05 in1.3 mm 0.00 in/hr0.0 mm/hr 0.06 in1.5 mm
07:17 AM 56.5°F13.6°C 54.3°F12.4°C 93% 7.0 mph SW11.3 kmh SW 14.0 mph22.5 kmh 29.59 in1002.0 mb 0.05 in1.3 mm 0.00 in/hr0.0 mm/hr 0.06 in1.5 mm
07:16 AM 56.5°F13.6°C 54.1°F12.3°C 92% 7.0 mph SW11.3 kmh SW 14.0 mph22.5 kmh 29.59 in1002.0 mb 0.05 in1.3 mm 0.60 in/hr15.2 mm/hr 0.06 in1.5 mm
07:15 AM 56.5°F13.6°C 54.1°F12.3°C 92% 7.0 mph SW11.3 kmh SW 14.0 mph22.5 kmh 29.59 in1002.0 mb 0.04 in1.0 mm 0.00 in/hr0.0 mm/hr 0.05 in1.3 mm
07:14 AM 56.5°F13.6°C 54.1°F12.3°C 92% 6.0 mph SW9.7 kmh SW 14.0 mph22.5 kmh 29.59 in1002.0 mb 0.04 in1.0 mm 0.00 in/hr0.0 mm/hr 0.05 in1.3 mm
07:13 AM 56.5°F13.6°C 54.1°F12.3°C 92% 6.0 mph SW9.7 kmh SW 14.0 mph22.5 kmh 29.59 in1002.0 mb 0.04 in1.0 mm 0.00 in/hr0.0 mm/hr 0.05 in1.3 mm
07:12 AM 56.5°F13.6°C 54.1°F12.3°C 92% 7.0 mph SW11.3 kmh SW 14.0 mph22.5 kmh 29.59 in1002.0 mb 0.04 in1.0 mm 0.60 in/hr15.2 mm/hr 0.05 in1.3 mm
07:11 AM 56.7°F13.7°C 54.3°F12.4°C 92% 7.0 mph SW11.3 kmh SW 14.0 mph22.5 kmh 29.59 in1002.0 mb 0.03 in0.8 mm 0.00 in/hr0.0 mm/hr 0.04 in1.0 mm
07:10 AM 56.7°F13.7°C 54.3°F12.4°C 92% 7.0 mph SW11.3 kmh SW 14.0 mph22.5 kmh 29.59 in1002.0 mb 0.03 in0.8 mm 0.00 in/hr0.0 mm/hr 0.04 in1.0 mm
07:09 AM 56.7°F13.7°C 54.3°F12.4°C 92% 6.0 mph SW9.7 kmh SW 14.0 mph22.5 kmh 29.59 in1002.0 mb 0.03 in0.8 mm 0.00 in/hr0.0 mm/hr 0.04 in1.0 mm
07:08 AM 56.7°F13.7°C 54.3°F12.4°C 92% 7.0 mph SW11.3 kmh SW 12.0 mph19.3 kmh 29.59 in1002.0 mb 0.03 in0.8 mm 0.60 in/hr15.2 mm/hr 0.04 in1.0 mm
07:07 AM 56.7°F13.7°C 54.3°F12.4°C 92% 6.0 mph SW9.7 kmh SW 12.0 mph19.3 kmh 29.59 in1002.0 mb 0.02 in0.5 mm 0.00 in/hr0.0 mm/hr 0.03 in0.8 mm
07:06 AM 56.7°F13.7°C 54.3°F12.4°C 92% 6.0 mph SSW9.7 kmh SSW 12.0 mph19.3 kmh 29.59 in1002.0 mb 0.02 in0.5 mm 0.00 in/hr0.0 mm/hr 0.03 in0.8 mm
07:05 AM 56.8°F13.8°C 54.5°F12.5°C 92% 6.0 mph SSW9.7 kmh SSW 12.0 mph19.3 kmh 29.59 in1002.0 mb 0.02 in0.5 mm 0.00 in/hr0.0 mm/hr 0.03 in0.8 mm
07:04 AM 56.8°F13.8°C 54.5°F12.5°C 92% 7.0 mph SSW11.3 kmh SSW 12.0 mph19.3 kmh 29.60 in1002.4 mb 0.02 in0.5 mm 0.00 in/hr0.0 mm/hr 0.03 in0.8 mm
07:03 AM 56.8°F13.8°C 54.5°F12.5°C 92% 7.0 mph SSW11.3 kmh SSW 12.0 mph19.3 kmh 29.60 in1002.4 mb 0.02 in0.5 mm 0.00 in/hr0.0 mm/hr 0.03 in0.8 mm
07:02 AM 56.8°F13.8°C 54.1°F12.3°C 91% 6.0 mph SSW9.7 kmh SSW 12.0 mph19.3 kmh 29.60 in1002.4 mb 0.02 in0.5 mm 0.00 in/hr0.0 mm/hr 0.03 in0.8 mm
07:01 AM 56.8°F13.8°C 54.3°F12.4°C 91% 6.0 mph SSW9.7 kmh SSW 11.0 mph17.7 kmh 29.60 in1002.4 mb 0.02 in0.5 mm 0.00 in/hr0.0 mm/hr 0.03 in0.8 mm
07:00 AM 56.8°F13.8°C 54.3°F12.4°C 91% 6.0 mph SSW9.7 kmh SSW 11.0 mph17.7 kmh 29.60 in1002.4 mb 0.02 in0.5 mm 0.00 in/hr0.0 mm/hr 0.03 in0.8 mm
06:59 AM 56.8°F13.8°C 54.3°F12.4°C 91% 6.0 mph SSW9.7 kmh SSW 14.0 mph22.5 kmh 29.60 in1002.4 mb 0.02 in0.5 mm 0.00 in/hr0.0 mm/hr 0.03 in0.8 mm
06:58 AM 56.8°F13.8°C 54.3°F12.4°C 91% 6.0 mph SSW9.7 kmh SSW 14.0 mph22.5 kmh 29.60 in1002.4 mb 0.02 in0.5 mm 0.00 in/hr0.0 mm/hr 0.03 in0.8 mm
06:57 AM 57.0°F13.9°C 54.3°F12.4°C 91% 6.0 mph SSW9.7 kmh SSW 14.0 mph22.5 kmh 29.60 in1002.4 mb 0.02 in0.5 mm 0.00 in/hr0.0 mm/hr 0.03 in0.8 mm
06:56 AM 57.0°F13.9°C 54.3°F12.4°C 91% 6.0 mph SSW9.7 kmh SSW 14.0 mph22.5 kmh 29.60 in1002.4 mb 0.02 in0.5 mm 0.00 in/hr0.0 mm/hr 0.03 in0.8 mm
06:55 AM 57.0°F13.9°C 54.3°F12.4°C 91% 6.0 mph SSW9.7 kmh SSW 14.0 mph22.5 kmh 29.60 in1002.4 mb 0.02 in0.5 mm 0.00 in/hr0.0 mm/hr 0.03 in0.8 mm
06:54 AM 57.0°F13.9°C 54.1°F12.3°C 90% 6.0 mph SSW9.7 kmh SSW 14.0 mph22.5 kmh 29.60 in1002.4 mb 0.02 in0.5 mm 0.00 in/hr0.0 mm/hr 0.03 in0.8 mm
06:53 AM 57.2°F14.0°C 54.7°F12.6°C 91% 6.0 mph SSW9.7 kmh SSW 14.0 mph22.5 kmh 29.60 in1002.4 mb 0.02 in0.5 mm 0.00 in/hr0.0 mm/hr 0.03 in0.8 mm
06:52 AM 57.2°F14.0°C 54.3°F12.4°C 90% 6.0 mph SW9.7 kmh SW 14.0 mph22.5 kmh 29.60 in1002.4 mb 0.02 in0.5 mm 0.00 in/hr0.0 mm/hr 0.03 in0.8 mm
06:51 AM 57.2°F14.0°C 54.3°F12.4°C 90% 6.0 mph SSW9.7 kmh SSW 14.0 mph22.5 kmh 29.61 in1002.7 mb 0.02 in0.5 mm 0.00 in/hr0.0 mm/hr 0.03 in0.8 mm
06:50 AM 57.4°F14.1°C 54.3°F12.4°C 90% 6.0 mph SSW9.7 kmh SSW 14.0 mph22.5 kmh 29.60 in1002.4 mb 0.02 in0.5 mm 0.00 in/hr0.0 mm/hr 0.03 in0.8 mm
06:49 AM 57.4°F14.1°C 54.5°F12.5°C 90% 6.0 mph SSW9.7 kmh SSW 11.0 mph17.7 kmh 29.61 in1002.7 mb 0.02 in0.5 mm 0.00 in/hr0.0 mm/hr 0.03 in0.8 mm
06:48 AM 57.6°F14.2°C 54.5°F12.5°C 90% 6.0 mph SSW9.7 kmh SSW 11.0 mph17.7 kmh 29.61 in1002.7 mb 0.02 in0.5 mm 0.00 in/hr0.0 mm/hr 0.03 in0.8 mm
06:47 AM 57.6°F14.2°C 54.3°F12.4°C 89% 6.0 mph SSW9.7 kmh SSW 11.0 mph17.7 kmh 29.61 in1002.7 mb 0.02 in0.5 mm 0.00 in/hr0.0 mm/hr 0.03 in0.8 mm
06:46 AM 57.6°F14.2°C 54.7°F12.6°C 90% 6.0 mph SSW9.7 kmh SSW 11.0 mph17.7 kmh 29.61 in1002.7 mb 0.02 in0.5 mm 0.00 in/hr0.0 mm/hr 0.03 in0.8 mm
06:45 AM 57.6°F14.2°C 54.3°F12.4°C 89% 5.0 mph SSW8.0 kmh SSW 11.0 mph17.7 kmh 29.61 in1002.7 mb 0.02 in0.5 mm 0.00 in/hr0.0 mm/hr 0.03 in0.8 mm
06:44 AM 57.7°F14.3°C 54.5°F12.5°C 89% 5.0 mph SSW8.0 kmh SSW 11.0 mph17.7 kmh 29.61 in1002.7 mb 0.02 in0.5 mm 0.00 in/hr0.0 mm/hr 0.03 in0.8 mm
06:43 AM 57.7°F14.3°C 54.5°F12.5°C 89% 5.0 mph SSW8.0 kmh SSW 11.0 mph17.7 kmh 29.61 in1002.7 mb 0.02 in0.5 mm 0.00 in/hr0.0 mm/hr 0.03 in0.8 mm
06:42 AM 57.7°F14.3°C 54.5°F12.5°C 89% 5.0 mph SSW8.0 kmh SSW 11.0 mph17.7 kmh 29.61 in1002.7 mb 0.02 in0.5 mm 0.00 in/hr0.0 mm/hr 0.03 in0.8 mm
06:41 AM 57.7°F14.3°C 54.5°F12.5°C 89% 5.0 mph SSW8.0 kmh SSW 11.0 mph17.7 kmh 29.61 in1002.7 mb 0.02 in0.5 mm 0.60 in/hr15.2 mm/hr 0.02 in0.5 mm
06:40 AM 57.9°F14.4°C 54.7°F12.6°C 89% 5.0 mph SSW8.0 kmh SSW 9.0 mph14.5 kmh 29.61 in1002.7 mb 0.01 in0.3 mm 0.60 in/hr15.2 mm/hr 0.02 in0.5 mm
06:39 AM 57.9°F14.4°C 54.7°F12.6°C 89% 5.0 mph SSW8.0 kmh SSW 9.0 mph14.5 kmh 29.61 in1002.7 mb 0.00 in0.0 mm 0.00 in/hr0.0 mm/hr 0.01 in0.3 mm
06:38 AM 57.9°F14.4°C 54.3°F12.4°C 88% 5.0 mph SSW8.0 kmh SSW 9.0 mph14.5 kmh 29.61 in1002.7 mb 0.00 in0.0 mm 0.00 in/hr0.0 mm/hr 0.01 in0.3 mm
06:37 AM 57.9°F14.4°C 54.5°F12.5°C 88% 5.0 mph SSW8.0 kmh SSW 9.0 mph14.5 kmh 29.61 in1002.7 mb 0.00 in0.0 mm 0.00 in/hr0.0 mm/hr 0.01 in0.3 mm
06:36 AM 57.9°F14.4°C 54.5°F12.5°C 88% 5.0 mph SSW8.0 kmh SSW 9.0 mph14.5 kmh 29.61 in1002.7 mb 0.00 in0.0 mm 0.00 in/hr0.0 mm/hr 0.01 in0.3 mm
06:35 AM 57.9°F14.4°C 54.3°F12.4°C 88% 5.0 mph SSW8.0 kmh SSW 9.0 mph14.5 kmh 29.62 in1003.0 mb 0.00 in0.0 mm 0.00 in/hr0.0 mm/hr 0.01 in0.3 mm
06:34 AM 57.9°F14.4°C 54.3°F12.4°C 88% 6.0 mph SW9.7 kmh SW 9.0 mph14.5 kmh 29.62 in1003.0 mb 0.00 in0.0 mm 0.00 in/hr0.0 mm/hr 0.01 in0.3 mm
06:33 AM 57.9°F14.4°C 54.3°F12.4°C 88% 6.0 mph SW9.7 kmh SW 14.0 mph22.5 kmh 29.62 in1003.0 mb 0.00 in0.0 mm 0.00 in/hr0.0 mm/hr 0.01 in0.3 mm
06:32 AM 57.7°F14.3°C 54.3°F12.4°C 88% 6.0 mph SW9.7 kmh SW 14.0 mph22.5 kmh 29.62 in1003.0 mb 0.00 in0.0 mm 0.00 in/hr0.0 mm/hr 0.01 in0.3 mm
06:31 AM 57.7°F14.3°C 54.3°F12.4°C 88% 6.0 mph SW9.7 kmh SW 14.0 mph22.5 kmh 29.62 in1003.0 mb 0.00 in0.0 mm 0.00 in/hr0.0 mm/hr 0.01 in0.3 mm
06:30 AM 57.7°F14.3°C 54.3°F12.4°C 88% 7.0 mph SW11.3 kmh SW 14.0 mph22.5 kmh 29.62 in1003.0 mb 0.00 in0.0 mm 0.00 in/hr0.0 mm/hr 0.01 in0.3 mm
06:29 AM 57.7°F14.3°C 54.3°F12.4°C 88% 7.0 mph SW11.3 kmh SW 14.0 mph22.5 kmh 29.62 in1003.0 mb 0.00 in0.0 mm 0.00 in/hr0.0 mm/hr 0.01 in0.3 mm
06:28 AM 57.9°F14.4°C 54.3°F12.4°C 88% 7.0 mph SW11.3 kmh SW 14.0 mph22.5 kmh 29.62 in1003.0 mb 0.00 in0.0 mm 0.00 in/hr0.0 mm/hr 0.01 in0.3 mm
06:27 AM 57.9°F14.4°C 54.3°F12.4°C 88% 7.0 mph SW11.3 kmh SW 14.0 mph22.5 kmh 29.62 in1003.0 mb 0.00 in0.0 mm 0.00 in/hr0.0 mm/hr 0.01 in0.3 mm
06:26 AM 57.9°F14.4°C 54.3°F12.4°C 88% 7.0 mph SW11.3 kmh SW 14.0 mph22.5 kmh 29.63 in1003.4 mb 0.00 in0.0 mm 0.00 in/hr0.0 mm/hr 0.01 in0.3 mm
06:25 AM 57.9°F14.4°C 54.5°F12.5°C 88% 7.0 mph SW11.3 kmh SW 14.0 mph22.5 kmh 29.62 in1003.0 mb 0.00 in0.0 mm 0.00 in/hr0.0 mm/hr 0.01 in0.3 mm
06:24 AM 57.9°F14.4°C 54.5°F12.5°C 88% 7.0 mph SW11.3 kmh SW 14.0 mph22.5 kmh 29.63 in1003.4 mb 0.00 in0.0 mm 0.00 in/hr0.0 mm/hr 0.01 in0.3 mm
06:23 AM 58.1°F14.5°C 54.9°F12.7°C 89% 7.0 mph SW11.3 kmh SW 12.0 mph19.3 kmh 29.63 in1003.4 mb 0.00 in0.0 mm 0.00 in/hr0.0 mm/hr 0.01 in0.3 mm
06:22 AM 58.3°F14.6°C 55.0°F12.8°C 89% 7.0 mph SW11.3 kmh SW 14.0 mph22.5 kmh 29.63 in1003.4 mb 0.00 in0.0 mm 0.00 in/hr0.0 mm/hr 0.01 in0.3 mm
06:21 AM 58.3°F14.6°C 54.7°F12.6°C 88% 7.0 mph SW11.3 kmh SW 14.0 mph22.5 kmh 29.63 in1003.4 mb 0.00 in0.0 mm 0.00 in/hr0.0 mm/hr 0.01 in0.3 mm
06:20 AM 58.3°F14.6°C 54.7°F12.6°C 88% 7.0 mph SW11.3 kmh SW 14.0 mph22.5 kmh 29.63 in1003.4 mb 0.00 in0.0 mm 0.00 in/hr0.0 mm/hr 0.01 in0.3 mm
06:19 AM 58.3°F14.6°C 54.7°F12.6°C 88% 7.0 mph SW11.3 kmh SW 14.0 mph22.5 kmh 29.63 in1003.4 mb 0.00 in0.0 mm 0.00 in/hr0.0 mm/hr 0.01 in0.3 mm
06:18 AM 58.5°F14.7°C 54.9°F12.7°C 88% 7.0 mph SW11.3 kmh SW 14.0 mph22.5 kmh 29.63 in1003.4 mb 0.00 in0.0 mm 0.00 in/hr0.0 mm/hr 0.01 in0.3 mm
06:17 AM 58.5°F14.7°C 54.9°F12.7°C 88% 7.0 mph SW11.3 kmh SW 14.0 mph22.5 kmh 29.63 in1003.4 mb 0.00 in0.0 mm 0.00 in/hr0.0 mm/hr 0.01 in0.3 mm
06:16 AM 58.5°F14.7°C 54.9°F12.7°C 88% 7.0 mph SW11.3 kmh SW 14.0 mph22.5 kmh 29.64 in1003.7 mb 0.00 in0.0 mm 0.00 in/hr0.0 mm/hr 0.01 in0.3 mm
06:15 AM 58.5°F14.7°C 55.0°F12.8°C 88% 7.0 mph SW11.3 kmh SW 14.0 mph22.5 kmh 29.64 in1003.7 mb 0.00 in0.0 mm 0.00 in/hr0.0 mm/hr 0.01 in0.3 mm
06:14 AM 58.5°F14.7°C 55.0°F12.8°C 88% 8.0 mph SW12.9 kmh SW 14.0 mph22.5 kmh 29.64 in1003.7 mb 0.00 in0.0 mm 0.00 in/hr0.0 mm/hr 0.01 in0.3 mm
06:13 AM 58.6°F14.8°C 55.0°F12.8°C 88% 8.0 mph SW12.9 kmh SW 14.0 mph22.5 kmh 29.64 in1003.7 mb 0.00 in0.0 mm 0.00 in/hr0.0 mm/hr 0.01 in0.3 mm
06:12 AM 58.6°F14.8°C 55.0°F12.8°C 88% 8.0 mph SW12.9 kmh SW 12.0 mph19.3 kmh 29.64 in1003.7 mb 0.00 in0.0 mm 0.00 in/hr0.0 mm/hr 0.01 in0.3 mm
06:11 AM 58.6°F14.8°C 55.0°F12.8°C 88% 8.0 mph SW12.9 kmh SW 15.0 mph24.1 kmh 29.64 in1003.7 mb 0.00 in0.0 mm 0.00 in/hr0.0 mm/hr 0.01 in0.3 mm
06:10 AM 58.6°F14.8°C 55.2°F12.9°C 88% 8.0 mph SW12.9 kmh SW 15.0 mph24.1 kmh 29.64 in1003.7 mb 0.00 in0.0 mm 0.00 in/hr0.0 mm/hr 0.01 in0.3 mm
06:09 AM 58.6°F14.8°C 55.2°F12.9°C 88% 8.0 mph SW12.9 kmh SW 15.0 mph24.1 kmh 29.64 in1003.7 mb 0.00 in0.0 mm 0.00 in/hr0.0 mm/hr 0.01 in0.3 mm
06:08 AM 58.6°F14.8°C 55.2°F12.9°C 88% 8.0 mph SW12.9 kmh SW 15.0 mph24.1 kmh 29.64 in1003.7 mb 0.00 in0.0 mm 0.00 in/hr0.0 mm/hr 0.01 in0.3 mm
06:07 AM 58.6°F14.8°C 55.2°F12.9°C 88% 8.0 mph SW12.9 kmh SW 15.0 mph24.1 kmh 29.64 in1003.7 mb 0.00 in0.0 mm 0.00 in/hr0.0 mm/hr 0.01 in0.3 mm
06:06 AM 58.6°F14.8°C 54.9°F12.7°C 87% 8.0 mph SW12.9 kmh SW 15.0 mph24.1 kmh 29.64 in1003.7 mb 0.00 in0.0 mm 0.00 in/hr0.0 mm/hr 0.01 in0.3 mm
06:05 AM 58.6°F14.8°C 54.9°F12.7°C 87% 8.0 mph SW12.9 kmh SW 15.0 mph24.1 kmh 29.64 in1003.7 mb 0.00 in0.0 mm 0.00 in/hr0.0 mm/hr 0.01 in0.3 mm
06:04 AM 58.6°F14.8°C 54.9°F12.7°C 87% 8.0 mph SW12.9 kmh SW 15.0 mph24.1 kmh 29.64 in1003.7 mb 0.00 in0.0 mm 0.00 in/hr0.0 mm/hr 0.01 in0.3 mm
06:03 AM 58.6°F14.8°C 54.9°F12.7°C 87% 7.0 mph SW11.3 kmh SW 15.0 mph24.1 kmh 29.64 in1003.7 mb 0.00 in0.0 mm 0.00 in/hr0.0 mm/hr 0.01 in0.3 mm
06:02 AM 58.6°F14.8°C 54.9°F12.7°C 87% 7.0 mph SW11.3 kmh SW 15.0 mph24.1 kmh 29.64 in1003.7 mb 0.00 in0.0 mm 0.00 in/hr0.0 mm/hr 0.01 in0.3 mm
06:01 AM 58.6°F14.8°C 54.9°F12.7°C 87% 7.0 mph SW11.3 kmh SW 15.0 mph24.1 kmh 29.64 in1003.7 mb 0.00 in0.0 mm 0.00 in/hr0.0 mm/hr 0.01 in0.3 mm
06:00 AM 58.6°F14.8°C 54.9°F12.7°C 87% 7.0 mph SW11.3 kmh SW 15.0 mph24.1 kmh 29.64 in1003.7 mb 0.00 in0.0 mm 0.00 in/hr0.0 mm/hr 0.01 in0.3 mm
05:59 AM 58.6°F14.8°C 54.9°F12.7°C 87% 7.0 mph SW11.3 kmh SW 15.0 mph24.1 kmh 29.64 in1003.7 mb 0.00 in0.0 mm 0.00 in/hr0.0 mm/hr 0.01 in0.3 mm
05:58 AM 58.6°F14.8°C 54.9°F12.7°C 87% 8.0 mph SW12.9 kmh SW 15.0 mph24.1 kmh 29.64 in1003.7 mb 0.00 in0.0 mm 0.00 in/hr0.0 mm/hr 0.01 in0.3 mm
05:57 AM 58.6°F14.8°C 54.9°F12.7°C 87% 8.0 mph SW12.9 kmh SW 15.0 mph24.1 kmh 29.64 in1003.7 mb 0.00 in0.0 mm 0.00 in/hr0.0 mm/hr 0.01 in0.3 mm
05:56 AM 58.6°F14.8°C 54.9°F12.7°C 87% 7.0 mph SW11.3 kmh SW 15.0 mph24.1 kmh 29.64 in1003.7 mb 0.00 in0.0 mm 0.00 in/hr0.0 mm/hr 0.01 in0.3 mm
05:55 AM 58.6°F14.8°C 54.9°F12.7°C 87% 7.0 mph SW11.3 kmh SW 15.0 mph24.1 kmh 29.64 in1003.7 mb 0.00 in0.0 mm 0.00 in/hr0.0 mm/hr 0.01 in0.3 mm
05:54 AM 58.6°F14.8°C 54.9°F12.7°C 87% 7.0 mph SW11.3 kmh SW 15.0 mph24.1 kmh 29.64 in1003.7 mb 0.00 in0.0 mm 0.00 in/hr0.0 mm/hr 0.01 in0.3 mm
05:53 AM 58.6°F14.8°C 54.9°F12.7°C 87% 7.0 mph SW11.3 kmh SW 15.0 mph24.1 kmh 29.64 in1003.7 mb 0.00 in0.0 mm 0.00 in/hr0.0 mm/hr 0.01 in0.3 mm
05:52 AM 58.6°F14.8°C 54.9°F12.7°C 87% 7.0 mph SW11.3 kmh SW 15.0 mph24.1 kmh 29.64 in1003.7 mb 0.00 in0.0 mm 0.00 in/hr0.0 mm/hr 0.01 in0.3 mm
05:51 AM 58.6°F14.8°C 54.9°F12.7°C 87% 7.0 mph SW11.3 kmh SW 15.0 mph24.1 kmh 29.65 in1004.1 mb 0.00 in0.0 mm 0.00 in/hr0.0 mm/hr 0.01 in0.3 mm
05:50 AM 58.6°F14.8°C 54.9°F12.7°C 87% 7.0 mph SW11.3 kmh SW 15.0 mph24.1 kmh 29.65 in1004.1 mb 0.00 in0.0 mm 0.00 in/hr0.0 mm/hr 0.01 in0.3 mm
05:49 AM 58.6°F14.8°C 54.9°F12.7°C 87% 7.0 mph SW11.3 kmh SW 15.0 mph24.1 kmh 29.65 in1004.1 mb 0.00 in0.0 mm 0.00 in/hr0.0 mm/hr 0.01 in0.3 mm
05:48 AM 58.6°F14.8°C 54.9°F12.7°C 87% 7.0 mph SW11.3 kmh SW 15.0 mph24.1 kmh 29.65 in1004.1 mb 0.00 in0.0 mm 0.00 in/hr0.0 mm/hr 0.01 in0.3 mm
05:47 AM 58.6°F14.8°C 54.9°F12.7°C 87% 7.0 mph SW11.3 kmh SW 15.0 mph24.1 kmh 29.65 in1004.1 mb 0.00 in0.0 mm 0.00 in/hr0.0 mm/hr 0.01 in0.3 mm
05:46 AM 58.6°F14.8°C 54.5°F12.5°C 86% 7.0 mph SW11.3 kmh SW 15.0 mph24.1 kmh 29.65 in1004.1 mb 0.00 in0.0 mm 0.00 in/hr0.0 mm/hr 0.01 in0.3 mm
05:45 AM 58.6°F14.8°C 54.5°F12.5°C 86% 7.0 mph SW11.3 kmh SW 15.0 mph24.1 kmh 29.65 in1004.1 mb 0.00 in0.0 mm 0.00 in/hr0.0 mm/hr 0.01 in0.3 mm
05:44 AM 58.6°F14.8°C 54.5°F12.5°C 86% 8.0 mph SW12.9 kmh SW 15.0 mph24.1 kmh 29.65 in1004.1 mb 0.00 in0.0 mm 0.00 in/hr0.0 mm/hr 0.01 in0.3 mm
05:43 AM 58.6°F14.8°C 54.5°F12.5°C 86% 8.0 mph SW12.9 kmh SW 15.0 mph24.1 kmh 29.65 in1004.1 mb 0.00 in0.0 mm 0.00 in/hr0.0 mm/hr 0.01 in0.3 mm
05:42 AM 58.6°F14.8°C 54.5°F12.5°C 86% 8.0 mph SW12.9 kmh SW 15.0 mph24.1 kmh 29.65 in1004.1 mb 0.00 in0.0 mm 0.00 in/hr0.0 mm/hr 0.01 in0.3 mm
05:41 AM 58.6°F14.8°C 54.5°F12.5°C 86% 8.0 mph SW12.9 kmh SW 15.0 mph24.1 kmh 29.65 in1004.1 mb 0.00 in0.0 mm 0.00 in/hr0.0 mm/hr 0.01 in0.3 mm
05:40 AM 58.6°F14.8°C 54.5°F12.5°C 86% 8.0 mph SW12.9 kmh SW 15.0 mph24.1 kmh 29.65 in1004.1 mb 0.00 in0.0 mm 0.00 in/hr0.0 mm/hr 0.01 in0.3 mm
05:39 AM 58.6°F14.8°C 54.5°F12.5°C 86% 8.0 mph SW12.9 kmh SW 15.0 mph24.1 kmh 29.65 in1004.1 mb 0.00 in0.0 mm 0.00 in/hr0.0 mm/hr 0.01 in0.3 mm
05:38 AM 58.6°F14.8°C 54.5°F12.5°C 86% 7.0 mph SW11.3 kmh SW 15.0 mph24.1 kmh 29.65 in1004.1 mb 0.00 in0.0 mm 0.00 in/hr0.0 mm/hr 0.01 in0.3 mm
05:37 AM 58.6°F14.8°C 54.5°F12.5°C 86% 7.0 mph SW11.3 kmh SW 13.0 mph20.9 kmh 29.65 in1004.1 mb 0.00 in0.0 mm 0.00 in/hr0.0 mm/hr 0.01 in0.3 mm
05:36 AM 58.6°F14.8°C 54.5°F12.5°C 86% 7.0 mph SW11.3 kmh SW 13.0 mph20.9 kmh 29.65 in1004.1 mb 0.00 in0.0 mm 0.00 in/hr0.0 mm/hr 0.01 in0.3 mm
05:35 AM 58.6°F14.8°C 54.5°F12.5°C 86% 7.0 mph SW11.3 kmh SW 13.0 mph20.9 kmh 29.66 in1004.4 mb 0.00 in0.0 mm 0.00 in/hr0.0 mm/hr 0.01 in0.3 mm
05:34 AM 58.6°F14.8°C 54.5°F12.5°C 86% 7.0 mph SW11.3 kmh SW 13.0 mph20.9 kmh 29.66 in1004.4 mb 0.00 in0.0 mm 0.00 in/hr0.0 mm/hr 0.01 in0.3 mm
05:33 AM 58.6°F14.8°C 54.5°F12.5°C 86% 7.0 mph SW11.3 kmh SW 12.0 mph19.3 kmh 29.66 in1004.4 mb 0.00 in0.0 mm 0.00 in/hr0.0 mm/hr 0.01 in0.3 mm
05:32 AM 58.6°F14.8°C 54.5°F12.5°C 86% 7.0 mph SW11.3 kmh SW 12.0 mph19.3 kmh 29.66 in1004.4 mb 0.00 in0.0 mm 0.00 in/hr0.0 mm/hr 0.01 in0.3 mm
05:31 AM 58.6°F14.8°C 54.5°F12.5°C 86% 7.0 mph SW11.3 kmh SW 12.0 mph19.3 kmh 29.66 in1004.4 mb 0.00 in0.0 mm 0.00 in/hr0.0 mm/hr 0.01 in0.3 mm
05:30 AM 58.6°F14.8°C 54.5°F12.5°C 86% 7.0 mph SW11.3 kmh SW 12.0 mph19.3 kmh 29.66 in1004.4 mb 0.00 in0.0 mm 0.00 in/hr0.0 mm/hr 0.01 in0.3 mm
05:29 AM 58.6°F14.8°C 54.5°F12.5°C 86% 7.0 mph SW11.3 kmh SW 12.0 mph19.3 kmh 29.66 in1004.4 mb 0.00 in0.0 mm 0.00 in/hr0.0 mm/hr 0.01 in0.3 mm
05:28 AM 58.5°F14.7°C 54.3°F12.4°C 86% 7.0 mph SW11.3 kmh SW 12.0 mph19.3 kmh 29.65 in1004.1 mb 0.00 in0.0 mm 0.00 in/hr0.0 mm/hr 0.01 in0.3 mm
05:27 AM 58.6°F14.8°C 54.5°F12.5°C 86% 7.0 mph SW11.3 kmh SW 12.0 mph19.3 kmh 29.66 in1004.4 mb 0.00 in0.0 mm 0.00 in/hr0.0 mm/hr 0.01 in0.3 mm
05:26 AM 58.6°F14.8°C 54.5°F12.5°C 86% 7.0 mph SW11.3 kmh SW 12.0 mph19.3 kmh 29.66 in1004.4 mb 0.00 in0.0 mm 0.00 in/hr0.0 mm/hr 0.01 in0.3 mm
05:25 AM 58.6°F14.8°C 54.5°F12.5°C 86% 7.0 mph SW11.3 kmh SW 12.0 mph19.3 kmh 29.66 in1004.4 mb 0.00 in0.0 mm 0.00 in/hr0.0 mm/hr 0.01 in0.3 mm
05:24 AM 58.6°F14.8°C 54.5°F12.5°C 86% 7.0 mph SW11.3 kmh SW 14.0 mph22.5 kmh 29.66 in1004.4 mb 0.00 in0.0 mm 0.00 in/hr0.0 mm/hr 0.01 in0.3 mm
05:23 AM 58.6°F14.8°C 54.5°F12.5°C 86% 7.0 mph SW11.3 kmh SW 14.0 mph22.5 kmh 29.66 in1004.4 mb 0.00 in0.0 mm 0.00 in/hr0.0 mm/hr 0.01 in0.3 mm
05:22 AM 58.6°F14.8°C 54.1°F12.3°C 85% 7.0 mph SW11.3 kmh SW 14.0 mph22.5 kmh 29.66 in1004.4 mb 0.00 in0.0 mm 0.00 in/hr0.0 mm/hr 0.01 in0.3 mm
05:21 AM 58.6°F14.8°C 54.1°F12.3°C 85% 7.0 mph SW11.3 kmh SW 18.0 mph29.0 kmh 29.66 in1004.4 mb 0.00 in0.0 mm 0.00 in/hr0.0 mm/hr 0.01 in0.3 mm
05:20 AM 58.6°F14.8°C 54.1°F12.3°C 85% 7.0 mph SW11.3 kmh SW 18.0 mph29.0 kmh 29.66 in1004.4 mb 0.00 in0.0 mm 0.00 in/hr0.0 mm/hr 0.01 in0.3 mm
05:19 AM 58.6°F14.8°C 54.1°F12.3°C 85% 7.0 mph SW11.3 kmh SW 18.0 mph29.0 kmh 29.66 in1004.4 mb 0.00 in0.0 mm 0.00 in/hr0.0 mm/hr 0.01 in0.3 mm
05:18 AM 58.6°F14.8°C 54.1°F12.3°C 85% 7.0 mph SW11.3 kmh SW 18.0 mph29.0 kmh 29.66 in1004.4 mb 0.00 in0.0 mm 0.00 in/hr0.0 mm/hr 0.01 in0.3 mm
05:17 AM 58.6°F14.8°C 54.1°F12.3°C 85% 8.0 mph SW12.9 kmh SW 18.0 mph29.0 kmh 29.67 in1004.7 mb 0.00 in0.0 mm 0.00 in/hr0.0 mm/hr 0.01 in0.3 mm
05:16 AM 58.6°F14.8°C 54.1°F12.3°C 85% 8.0 mph SW12.9 kmh SW 18.0 mph29.0 kmh 29.66 in1004.4 mb 0.00 in0.0 mm 0.00 in/hr0.0 mm/hr 0.01 in0.3 mm
05:15 AM 58.6°F14.8°C 54.1°F12.3°C 85% 8.0 mph SW12.9 kmh SW 18.0 mph29.0 kmh 29.66 in1004.4 mb 0.00 in0.0 mm 0.00 in/hr0.0 mm/hr 0.01 in0.3 mm
05:14 AM 58.6°F14.8°C 54.1°F12.3°C 85% 8.0 mph SW12.9 kmh SW 18.0 mph29.0 kmh 29.66 in1004.4 mb 0.01 in0.3 mm 0.00 in/hr0.0 mm/hr 0.01 in0.3 mm
05:13 AM 58.6°F14.8°C 54.1°F12.3°C 85% 8.0 mph SW12.9 kmh SW 18.0 mph29.0 kmh 29.67 in1004.7 mb 0.01 in0.3 mm 0.00 in/hr0.0 mm/hr 0.01 in0.3 mm
05:12 AM 58.6°F14.8°C 54.1°F12.3°C 85% 8.0 mph SW12.9 kmh SW 18.0 mph29.0 kmh 29.67 in1004.7 mb 0.01 in0.3 mm 0.00 in/hr0.0 mm/hr 0.01 in0.3 mm
05:11 AM 58.6°F14.8°C 54.1°F12.3°C 85% 8.0 mph SW12.9 kmh SW 16.0 mph25.7 kmh 29.67 in1004.7 mb 0.01 in0.3 mm 0.00 in/hr0.0 mm/hr 0.01 in0.3 mm
05:10 AM 58.6°F14.8°C 54.5°F12.5°C 86% 8.0 mph SW12.9 kmh SW 16.0 mph25.7 kmh 29.67 in1004.7 mb 0.01 in0.3 mm 0.00 in/hr0.0 mm/hr 0.01 in0.3 mm
05:09 AM 58.6°F14.8°C 54.5°F12.5°C 86% 8.0 mph SW12.9 kmh SW 16.0 mph25.7 kmh 29.67 in1004.7 mb 0.01 in0.3 mm 0.00 in/hr0.0 mm/hr 0.01 in0.3 mm
05:08 AM 58.5°F14.7°C 54.3°F12.4°C 86% 8.0 mph SW12.9 kmh SW 16.0 mph25.7 kmh 29.67 in1004.7 mb 0.01 in0.3 mm 0.00 in/hr0.0 mm/hr 0.01 in0.3 mm
05:07 AM 58.5°F14.7°C 54.3°F12.4°C 86% 8.0 mph SW12.9 kmh SW 16.0 mph25.7 kmh 29.67 in1004.7 mb 0.01 in0.3 mm 0.00 in/hr0.0 mm/hr 0.01 in0.3 mm
05:06 AM 58.5°F14.7°C 54.3°F12.4°C 86% 9.0 mph SW14.5 kmh SW 17.0 mph27.4 kmh 29.67 in1004.7 mb 0.01 in0.3 mm 0.00 in/hr0.0 mm/hr 0.01 in0.3 mm
05:05 AM 58.5°F14.7°C 54.3°F12.4°C 86% 8.0 mph SW12.9 kmh SW 17.0 mph27.4 kmh 29.67 in1004.7 mb 0.01 in0.3 mm 0.00 in/hr0.0 mm/hr 0.01 in0.3 mm
05:04 AM 58.5°F14.7°C 54.3°F12.4°C 86% 8.0 mph SW12.9 kmh SW 17.0 mph27.4 kmh 29.67 in1004.7 mb 0.01 in0.3 mm 0.00 in/hr0.0 mm/hr 0.01 in0.3 mm
05:03 AM 58.5°F14.7°C 54.3°F12.4°C 86% 8.0 mph SW12.9 kmh SW 17.0 mph27.4 kmh 29.67 in1004.7 mb 0.01 in0.3 mm 0.00 in/hr0.0 mm/hr 0.01 in0.3 mm
05:02 AM 58.5°F14.7°C 54.3°F12.4°C 86% 8.0 mph SW12.9 kmh SW 17.0 mph27.4 kmh 29.67 in1004.7 mb 0.01 in0.3 mm 0.00 in/hr0.0 mm/hr 0.01 in0.3 mm
05:01 AM 58.5°F14.7°C 54.3°F12.4°C 86% 7.0 mph SW11.3 kmh SW 17.0 mph27.4 kmh 29.67 in1004.7 mb 0.01 in0.3 mm 0.00 in/hr0.0 mm/hr 0.01 in0.3 mm
05:00 AM 58.5°F14.7°C 54.3°F12.4°C 86% 7.0 mph SW11.3 kmh SW 17.0 mph27.4 kmh 29.67 in1004.7 mb 0.01 in0.3 mm 0.00 in/hr0.0 mm/hr 0.01 in0.3 mm
04:59 AM 58.6°F14.8°C 54.5°F12.5°C 86% 7.0 mph SW11.3 kmh SW 17.0 mph27.4 kmh 29.67 in1004.7 mb 0.01 in0.3 mm 0.00 in/hr0.0 mm/hr 0.01 in0.3 mm
04:58 AM 58.5°F14.7°C 54.3°F12.4°C 86% 7.0 mph SW11.3 kmh SW 17.0 mph27.4 kmh 29.68 in1005.1 mb 0.01 in0.3 mm 0.00 in/hr0.0 mm/hr 0.01 in0.3 mm
04:57 AM 58.5°F14.7°C 54.3°F12.4°C 86% 7.0 mph SW11.3 kmh SW 17.0 mph27.4 kmh 29.67 in1004.7 mb 0.01 in0.3 mm 0.00 in/hr0.0 mm/hr 0.01 in0.3 mm
04:56 AM 58.5°F14.7°C 54.3°F12.4°C 86% 7.0 mph SW11.3 kmh SW 16.0 mph25.7 kmh 29.68 in1005.1 mb 0.01 in0.3 mm 0.00 in/hr0.0 mm/hr 0.01 in0.3 mm
04:55 AM 58.5°F14.7°C 54.3°F12.4°C 86% 7.0 mph SW11.3 kmh SW 15.0 mph24.1 kmh 29.68 in1005.1 mb 0.01 in0.3 mm 0.00 in/hr0.0 mm/hr 0.01 in0.3 mm
04:54 AM 58.5°F14.7°C 54.3°F12.4°C 86% 7.0 mph SW11.3 kmh SW 15.0 mph24.1 kmh 29.67 in1004.7 mb 0.01 in0.3 mm 0.00 in/hr0.0 mm/hr 0.01 in0.3 mm
04:53 AM 58.5°F14.7°C 54.3°F12.4°C 86% 7.0 mph SW11.3 kmh SW 15.0 mph24.1 kmh 29.67 in1004.7 mb 0.01 in0.3 mm 0.00 in/hr0.0 mm/hr 0.01 in0.3 mm
04:52 AM 58.5°F14.7°C 54.3°F12.4°C 86% 7.0 mph SW11.3 kmh SW 15.0 mph24.1 kmh 29.67 in1004.7 mb 0.01 in0.3 mm 0.00 in/hr0.0 mm/hr 0.01 in0.3 mm
04:51 AM 58.5°F14.7°C 54.3°F12.4°C 86% 7.0 mph SW11.3 kmh SW 15.0 mph24.1 kmh 29.67 in1004.7 mb 0.01 in0.3 mm 0.00 in/hr0.0 mm/hr 0.01 in0.3 mm
04:50 AM 58.5°F14.7°C 54.7°F12.6°C 87% 7.0 mph SW11.3 kmh SW 15.0 mph24.1 kmh 29.68 in1005.1 mb 0.01 in0.3 mm 0.00 in/hr0.0 mm/hr 0.01 in0.3 mm
04:49 AM 58.5°F14.7°C 54.5°F12.5°C 87% 7.0 mph SW11.3 kmh SW 15.0 mph24.1 kmh 29.68 in1005.1 mb 0.01 in0.3 mm 0.00 in/hr0.0 mm/hr 0.01 in0.3 mm
04:48 AM 58.5°F14.7°C 54.7°F12.6°C 87% 7.0 mph SW11.3 kmh SW 15.0 mph24.1 kmh 29.68 in1005.1 mb 0.01 in0.3 mm 0.00 in/hr0.0 mm/hr 0.01 in0.3 mm
04:47 AM 58.5°F14.7°C 54.7°F12.6°C 87% 7.0 mph SW11.3 kmh SW 15.0 mph24.1 kmh 29.68 in1005.1 mb 0.01 in0.3 mm 0.00 in/hr0.0 mm/hr 0.01 in0.3 mm
04:46 AM 58.5°F14.7°C 54.7°F12.6°C 87% 7.0 mph SW11.3 kmh SW 15.0 mph24.1 kmh 29.68 in1005.1 mb 0.01 in0.3 mm 0.00 in/hr0.0 mm/hr 0.01 in0.3 mm
04:45 AM 58.5°F14.7°C 54.7°F12.6°C 87% 7.0 mph SW11.3 kmh SW 14.0 mph22.5 kmh 29.68 in1005.1 mb 0.01 in0.3 mm 0.00 in/hr0.0 mm/hr 0.01 in0.3 mm
04:44 AM 58.5°F14.7°C 54.7°F12.6°C 87% 7.0 mph SW11.3 kmh SW 14.0 mph22.5 kmh 29.68 in1005.1 mb 0.01 in0.3 mm 0.00 in/hr0.0 mm/hr 0.01 in0.3 mm
04:43 AM 58.5°F14.7°C 54.7°F12.6°C 87% 7.0 mph SW11.3 kmh SW 14.0 mph22.5 kmh 29.68 in1005.1 mb 0.01 in0.3 mm 0.00 in/hr0.0 mm/hr 0.01 in0.3 mm
04:42 AM 58.5°F14.7°C 54.7°F12.6°C 87% 8.0 mph SW12.9 kmh SW 14.0 mph22.5 kmh 29.68 in1005.1 mb 0.01 in0.3 mm 0.00 in/hr0.0 mm/hr 0.01 in0.3 mm
04:41 AM 58.5°F14.7°C 54.7°F12.6°C 87% 7.0 mph SW11.3 kmh SW 14.0 mph22.5 kmh 29.68 in1005.1 mb 0.01 in0.3 mm 0.00 in/hr0.0 mm/hr 0.01 in0.3 mm
04:40 AM 58.5°F14.7°C 54.7°F12.6°C 87% 7.0 mph SW11.3 kmh SW 14.0 mph22.5 kmh 29.68 in1005.1 mb 0.01 in0.3 mm 0.00 in/hr0.0 mm/hr 0.01 in0.3 mm
04:39 AM 58.5°F14.7°C 54.7°F12.6°C 87% 7.0 mph SW11.3 kmh SW 13.0 mph20.9 kmh 29.68 in1005.1 mb 0.01 in0.3 mm 0.00 in/hr0.0 mm/hr 0.01 in0.3 mm
04:38 AM 58.5°F14.7°C 54.7°F12.6°C 87% 7.0 mph SW11.3 kmh SW 16.0 mph25.7 kmh 29.68 in1005.1 mb 0.01 in0.3 mm 0.00 in/hr0.0 mm/hr 0.01 in0.3 mm
04:37 AM 58.5°F14.7°C 54.7°F12.6°C 87% 7.0 mph SW11.3 kmh SW 16.0 mph25.7 kmh 29.68 in1005.1 mb 0.01 in0.3 mm 0.00 in/hr0.0 mm/hr 0.01 in0.3 mm
04:36 AM 58.5°F14.7°C 54.3°F12.4°C 86% 7.0 mph SW11.3 kmh SW 16.0 mph25.7 kmh 29.68 in1005.1 mb 0.01 in0.3 mm 0.00 in/hr0.0 mm/hr 0.01 in0.3 mm
04:35 AM 58.5°F14.7°C 54.3°F12.4°C 86% 7.0 mph SW11.3 kmh SW 16.0 mph25.7 kmh 29.69 in1005.4 mb 0.01 in0.3 mm 0.00 in/hr0.0 mm/hr 0.01 in0.3 mm
04:34 AM 58.5°F14.7°C 54.3°F12.4°C 86% 7.0 mph SW11.3 kmh SW 16.0 mph25.7 kmh 29.69 in1005.4 mb 0.01 in0.3 mm 0.00 in/hr0.0 mm/hr 0.01 in0.3 mm
04:33 AM 58.5°F14.7°C 54.3°F12.4°C 86% 7.0 mph SW11.3 kmh SW 16.0 mph25.7 kmh 29.69 in1005.4 mb 0.01 in0.3 mm 0.00 in/hr0.0 mm/hr 0.01 in0.3 mm
04:32 AM 58.5°F14.7°C 54.3°F12.4°C 86% 7.0 mph SW11.3 kmh SW 16.0 mph25.7 kmh 29.69 in1005.4 mb 0.01 in0.3 mm 0.00 in/hr0.0 mm/hr 0.01 in0.3 mm
04:31 AM 58.5°F14.7°C 54.3°F12.4°C 86% 7.0 mph SW11.3 kmh SW 16.0 mph25.7 kmh 29.69 in1005.4 mb 0.01 in0.3 mm 0.00 in/hr0.0 mm/hr 0.01 in0.3 mm
04:30 AM 58.5°F14.7°C 54.3°F12.4°C 86% 7.0 mph SW11.3 kmh SW 16.0 mph25.7 kmh 29.69 in1005.4 mb 0.01 in0.3 mm 0.00 in/hr0.0 mm/hr 0.01 in0.3 mm
04:29 AM 58.5°F14.7°C 54.3°F12.4°C 86% 7.0 mph SW11.3 kmh SW 16.0 mph25.7 kmh 29.69 in1005.4 mb 0.01 in0.3 mm 0.00 in/hr0.0 mm/hr 0.01 in0.3 mm
04:28 AM 58.5°F14.7°C 54.3°F12.4°C 86% 7.0 mph SW11.3 kmh SW 16.0 mph25.7 kmh 29.69 in1005.4 mb 0.01 in0.3 mm 0.00 in/hr0.0 mm/hr 0.01 in0.3 mm
04:27 AM 58.5°F14.7°C 54.3°F12.4°C 86% 7.0 mph SW11.3 kmh SW 14.0 mph22.5 kmh 29.69 in1005.4 mb 0.01 in0.3 mm 0.00 in/hr0.0 mm/hr 0.01 in0.3 mm
04:26 AM 58.5°F14.7°C 54.1°F12.3°C 86% 7.0 mph SW11.3 kmh SW 14.0 mph22.5 kmh 29.69 in1005.4 mb 0.01 in0.3 mm 0.00 in/hr0.0 mm/hr 0.01 in0.3 mm
04:25 AM 58.5°F14.7°C 54.1°F12.3°C 86% 7.0 mph SW11.3 kmh SW 14.0 mph22.5 kmh 29.69 in1005.4 mb 0.01 in0.3 mm 0.00 in/hr0.0 mm/hr 0.01 in0.3 mm
04:24 AM 58.5°F14.7°C 54.0°F12.2°C 85% 6.0 mph SW9.7 kmh SW 14.0 mph22.5 kmh 29.69 in1005.4 mb 0.01 in0.3 mm 0.00 in/hr0.0 mm/hr 0.01 in0.3 mm
04:23 AM 58.5°F14.7°C 54.0°F12.2°C 85% 7.0 mph SW11.3 kmh SW 14.0 mph22.5 kmh 29.69 in1005.4 mb 0.01 in0.3 mm 0.00 in/hr0.0 mm/hr 0.01 in0.3 mm
04:22 AM 58.5°F14.7°C 54.0°F12.2°C 85% 6.0 mph SW9.7 kmh SW 14.0 mph22.5 kmh 29.69 in1005.4 mb 0.01 in0.3 mm 0.00 in/hr0.0 mm/hr 0.01 in0.3 mm
04:21 AM 58.5°F14.7°C 54.0°F12.2°C 85% 7.0 mph SW11.3 kmh SW 14.0 mph22.5 kmh 29.69 in1005.4 mb 0.01 in0.3 mm 0.00 in/hr0.0 mm/hr 0.01 in0.3 mm
04:20 AM 58.5°F14.7°C 54.0°F12.2°C 85% 7.0 mph SW11.3 kmh SW 14.0 mph22.5 kmh 29.70 in1005.8 mb 0.01 in0.3 mm 0.00 in/hr0.0 mm/hr 0.01 in0.3 mm
04:19 AM 58.5°F14.7°C 54.0°F12.2°C 85% 7.0 mph SW11.3 kmh SW 14.0 mph22.5 kmh 29.69 in1005.4 mb 0.01 in0.3 mm 0.00 in/hr0.0 mm/hr 0.01 in0.3 mm
04:18 AM 58.5°F14.7°C 54.1°F12.3°C 86% 7.0 mph SW11.3 kmh SW 14.0 mph22.5 kmh 29.69 in1005.4 mb 0.01 in0.3 mm 0.00 in/hr0.0 mm/hr 0.01 in0.3 mm
04:17 AM 58.5°F14.7°C 54.1°F12.3°C 86% 8.0 mph SW12.9 kmh SW 16.0 mph25.7 kmh 29.69 in1005.4 mb 0.01 in0.3 mm 0.00 in/hr0.0 mm/hr 0.01 in0.3 mm
04:16 AM 58.3°F14.6°C 54.1°F12.3°C 86% 8.0 mph SW12.9 kmh SW 16.0 mph25.7 kmh 29.69 in1005.4 mb 0.01 in0.3 mm 0.60 in/hr15.2 mm/hr 0.01 in0.3 mm
04:15 AM 58.3°F14.6°C 54.1°F12.3°C 86% 8.0 mph SW12.9 kmh SW 16.0 mph25.7 kmh 29.69 in1005.4 mb 0.00 in0.0 mm 0.00 in/hr0.0 mm/hr 0.00 in0.0 mm
04:14 AM 58.3°F14.6°C 54.1°F12.3°C 86% 8.0 mph SW12.9 kmh SW 16.0 mph25.7 kmh 29.70 in1005.8 mb 0.00 in0.0 mm 0.00 in/hr0.0 mm/hr 0.00 in0.0 mm
04:13 AM 58.3°F14.6°C 54.1°F12.3°C 86% 8.0 mph SW12.9 kmh SW 16.0 mph25.7 kmh 29.69 in1005.4 mb 0.00 in0.0 mm 0.00 in/hr0.0 mm/hr 0.00 in0.0 mm
04:12 AM 58.3°F14.6°C 54.1°F12.3°C 86% 8.0 mph SW12.9 kmh SW 16.0 mph25.7 kmh 29.70 in1005.8 mb 0.00 in0.0 mm 0.00 in/hr0.0 mm/hr 0.00 in0.0 mm
04:11 AM 58.3°F14.6°C 54.0°F12.2°C 86% 8.0 mph SW12.9 kmh SW 18.0 mph29.0 kmh 29.70 in1005.8 mb 0.00 in0.0 mm 0.00 in/hr0.0 mm/hr 0.00 in0.0 mm
04:10 AM 58.3°F14.6°C 54.0°F12.2°C 86% 8.0 mph SW12.9 kmh SW 18.0 mph29.0 kmh 29.70 in1005.8 mb 0.00 in0.0 mm 0.00 in/hr0.0 mm/hr 0.00 in0.0 mm
04:09 AM 58.3°F14.6°C 54.1°F12.3°C 86% 8.0 mph SW12.9 kmh SW 18.0 mph29.0 kmh 29.70 in1005.8 mb 0.00 in0.0 mm 0.00 in/hr0.0 mm/hr 0.00 in0.0 mm
04:08 AM 58.3°F14.6°C 54.1°F12.3°C 86% 8.0 mph SW12.9 kmh SW 18.0 mph29.0 kmh 29.70 in1005.8 mb 0.00 in0.0 mm 0.00 in/hr0.0 mm/hr 0.00 in0.0 mm
04:07 AM 58.3°F14.6°C 54.0°F12.2°C 86% 7.0 mph SW11.3 kmh SW 18.0 mph29.0 kmh 29.70 in1005.8 mb 0.00 in0.0 mm 0.00 in/hr0.0 mm/hr 0.00 in0.0 mm
04:06 AM 58.3°F14.6°C 54.1°F12.3°C 86% 7.0 mph SW11.3 kmh SW 18.0 mph29.0 kmh 29.70 in1005.8 mb 0.00 in0.0 mm 0.00 in/hr0.0 mm/hr 0.00 in0.0 mm
04:05 AM 58.3°F14.6°C 54.0°F12.2°C 86% 7.0 mph SW11.3 kmh SW 18.0 mph29.0 kmh 29.70 in1005.8 mb 0.00 in0.0 mm 0.00 in/hr0.0 mm/hr 0.00 in0.0 mm
04:04 AM 58.3°F14.6°C 54.0°F12.2°C 86% 7.0 mph SW11.3 kmh SW 18.0 mph29.0 kmh 29.70 in1005.8 mb 0.00 in0.0 mm 0.00 in/hr0.0 mm/hr 0.00 in0.0 mm
04:03 AM 58.3°F14.6°C 54.0°F12.2°C 86% 7.0 mph SW11.3 kmh SW 18.0 mph29.0 kmh 29.70 in1005.8 mb 0.00 in0.0 mm 0.00 in/hr0.0 mm/hr 0.00 in0.0 mm
04:02 AM 58.3°F14.6°C 54.0°F12.2°C 86% 7.0 mph SW11.3 kmh SW 18.0 mph29.0 kmh 29.71 in1006.1 mb 0.00 in0.0 mm 0.00 in/hr0.0 mm/hr 0.00 in0.0 mm
04:01 AM 58.3°F14.6°C 54.0°F12.2°C 86% 7.0 mph SW11.3 kmh SW 14.0 mph22.5 kmh 29.71 in1006.1 mb 0.00 in0.0 mm 0.00 in/hr0.0 mm/hr 0.00 in0.0 mm
04:00 AM 58.3°F14.6°C 54.3°F12.4°C 87% 7.0 mph SW11.3 kmh SW 14.0 mph22.5 kmh 29.71 in1006.1 mb 0.00 in0.0 mm 0.00 in/hr0.0 mm/hr 0.00 in0.0 mm
03:59 AM 58.3°F14.6°C 54.5°F12.5°C 87% 7.0 mph SW11.3 kmh SW 14.0 mph22.5 kmh 29.71 in1006.1 mb 0.00 in0.0 mm 0.00 in/hr0.0 mm/hr 0.00 in0.0 mm
03:58 AM 58.3°F14.6°C 54.5°F12.5°C 87% 7.0 mph SW11.3 kmh SW 14.0 mph22.5 kmh 29.71 in1006.1 mb 0.00 in0.0 mm 0.00 in/hr0.0 mm/hr 0.00 in0.0 mm
03:57 AM 58.3°F14.6°C 54.5°F12.5°C 87% 7.0 mph SW11.3 kmh SW 14.0 mph22.5 kmh 29.71 in1006.1 mb 0.00 in0.0 mm 0.00 in/hr0.0 mm/hr 0.00 in0.0 mm
03:56 AM 58.3°F14.6°C 54.5°F12.5°C 87% 7.0 mph SW11.3 kmh SW 14.0 mph22.5 kmh 29.71 in1006.1 mb 0.00 in0.0 mm 0.00 in/hr0.0 mm/hr 0.00 in0.0 mm
03:55 AM 58.3°F14.6°C 54.5°F12.5°C 87% 7.0 mph SW11.3 kmh SW 14.0 mph22.5 kmh 29.71 in1006.1 mb 0.00 in0.0 mm 0.00 in/hr0.0 mm/hr 0.00 in0.0 mm
03:54 AM 58.5°F14.7°C 54.5°F12.5°C 87% 7.0 mph SW11.3 kmh SW 14.0 mph22.5 kmh 29.71 in1006.1 mb 0.00 in0.0 mm 0.00 in/hr0.0 mm/hr 0.00 in0.0 mm
03:53 AM 58.5°F14.7°C 54.5°F12.5°C 87% 7.0 mph SW11.3 kmh SW 16.0 mph25.7 kmh 29.71 in1006.1 mb 0.00 in0.0 mm 0.00 in/hr0.0 mm/hr 0.00 in0.0 mm
03:52 AM 58.5°F14.7°C 54.5°F12.5°C 87% 7.0 mph SW11.3 kmh SW 16.0 mph25.7 kmh 29.71 in1006.1 mb 0.00 in0.0 mm 0.00 in/hr0.0 mm/hr 0.00 in0.0 mm
03:51 AM 58.5°F14.7°C 54.5°F12.5°C 87% 7.0 mph SW11.3 kmh SW 16.0 mph25.7 kmh 29.71 in1006.1 mb 0.00 in0.0 mm 0.00 in/hr0.0 mm/hr 0.00 in0.0 mm
03:50 AM 58.5°F14.7°C 54.5°F12.5°C 87% 6.0 mph SW9.7 kmh SW 16.0 mph25.7 kmh 29.71 in1006.1 mb 0.00 in0.0 mm 0.00 in/hr0.0 mm/hr 0.00 in0.0 mm
03:49 AM 58.5°F14.7°C 54.5°F12.5°C 87% 6.0 mph SW9.7 kmh SW 16.0 mph25.7 kmh 29.71 in1006.1 mb 0.00 in0.0 mm 0.00 in/hr0.0 mm/hr 0.00 in0.0 mm
03:48 AM 58.5°F14.7°C 54.5°F12.5°C 87% 6.0 mph SW9.7 kmh SW 16.0 mph25.7 kmh 29.71 in1006.1 mb 0.00 in0.0 mm 0.00 in/hr0.0 mm/hr 0.00 in0.0 mm
03:47 AM 58.5°F14.7°C 54.5°F12.5°C 87% 7.0 mph SW11.3 kmh SW 16.0 mph25.7 kmh 29.71 in1006.1 mb 0.00 in0.0 mm 0.00 in/hr0.0 mm/hr 0.00 in0.0 mm
03:46 AM 58.5°F14.7°C 54.5°F12.5°C 87% 7.0 mph SW11.3 kmh SW 16.0 mph25.7 kmh 29.72 in1006.4 mb 0.00 in0.0 mm 0.00 in/hr0.0 mm/hr 0.00 in0.0 mm
03:45 AM 58.5°F14.7°C 54.5°F12.5°C 87% 7.0 mph SW11.3 kmh SW 16.0 mph25.7 kmh 29.72 in1006.4 mb 0.00 in0.0 mm 0.00 in/hr0.0 mm/hr 0.00 in0.0 mm
03:44 AM 58.5°F14.7°C 54.5°F12.5°C 87% 7.0 mph SW11.3 kmh SW 16.0 mph25.7 kmh 29.72 in1006.4 mb 0.00 in0.0 mm 0.00 in/hr0.0 mm/hr 0.00 in0.0 mm
03:43 AM 58.3°F14.6°C 54.5°F12.5°C 87% 7.0 mph SW11.3 kmh SW 13.0 mph20.9 kmh 29.72 in1006.4 mb 0.00 in0.0 mm 0.00 in/hr0.0 mm/hr 0.00 in0.0 mm
03:42 AM 58.3°F14.6°C 54.5°F12.5°C 87% 7.0 mph SW11.3 kmh SW 13.0 mph20.9 kmh 29.72 in1006.4 mb 0.00 in0.0 mm 0.00 in/hr0.0 mm/hr 0.00 in0.0 mm
03:41 AM 58.3°F14.6°C 54.5°F12.5°C 87% 7.0 mph SW11.3 kmh SW 13.0 mph20.9 kmh 29.72 in1006.4 mb 0.00 in0.0 mm 0.00 in/hr0.0 mm/hr 0.00 in0.0 mm
03:40 AM 58.3°F14.6°C 54.5°F12.5°C 87% 7.0 mph SW11.3 kmh SW 13.0 mph20.9 kmh 29.72 in1006.4 mb 0.00 in0.0 mm 0.00 in/hr0.0 mm/hr 0.00 in0.0 mm
03:39 AM 58.3°F14.6°C 54.5°F12.5°C 87% 7.0 mph SW11.3 kmh SW 13.0 mph20.9 kmh 29.72 in1006.4 mb 0.00 in0.0 mm 0.00 in/hr0.0 mm/hr 0.00 in0.0 mm
03:38 AM 58.3°F14.6°C 54.5°F12.5°C 87% 7.0 mph SW11.3 kmh SW 13.0 mph20.9 kmh 29.72 in1006.4 mb 0.00 in0.0 mm 0.00 in/hr0.0 mm/hr 0.00 in0.0 mm
03:37 AM 58.3°F14.6°C 54.5°F12.5°C 87% 7.0 mph SW11.3 kmh SW 13.0 mph20.9 kmh 29.72 in1006.4 mb 0.00 in0.0 mm 0.00 in/hr0.0 mm/hr 0.00 in0.0 mm
03:36 AM 58.3°F14.6°C 54.5°F12.5°C 87% 7.0 mph SW11.3 kmh SW 13.0 mph20.9 kmh 29.72 in1006.4 mb 0.00 in0.0 mm 0.00 in/hr0.0 mm/hr 0.00 in0.0 mm
03:35 AM 58.3°F14.6°C 54.5°F12.5°C 87% 7.0 mph SW11.3 kmh SW 13.0 mph20.9 kmh 29.72 in1006.4 mb 0.00 in0.0 mm 0.00 in/hr0.0 mm/hr 0.00 in0.0 mm
03:34 AM 58.3°F14.6°C 54.5°F12.5°C 87% 7.0 mph SW11.3 kmh SW 13.0 mph20.9 kmh 29.72 in1006.4 mb 0.00 in0.0 mm 0.00 in/hr0.0 mm/hr 0.00 in0.0 mm
03:33 AM 58.3°F14.6°C 54.5°F12.5°C 87% 7.0 mph SW11.3 kmh SW 14.0 mph22.5 kmh 29.72 in1006.4 mb 0.00 in0.0 mm 0.00 in/hr0.0 mm/hr 0.00 in0.0 mm
03:32 AM 58.3°F14.6°C 54.3°F12.4°C 87% 7.0 mph SW11.3 kmh SW 14.0 mph22.5 kmh 29.72 in1006.4 mb 0.00 in0.0 mm 0.00 in/hr0.0 mm/hr 0.00 in0.0 mm
03:31 AM 58.3°F14.6°C 54.0°F12.2°C 86% 7.0 mph SW11.3 kmh SW 14.0 mph22.5 kmh 29.73 in1006.8 mb 0.00 in0.0 mm 0.00 in/hr0.0 mm/hr 0.00 in0.0 mm
03:30 AM 58.3°F14.6°C 54.0°F12.2°C 86% 7.0 mph SW11.3 kmh SW 14.0 mph22.5 kmh 29.73 in1006.8 mb 0.00 in0.0 mm 0.00 in/hr0.0 mm/hr 0.00 in0.0 mm
03:29 AM 58.3°F14.6°C 54.0°F12.2°C 86% 7.0 mph SW11.3 kmh SW 17.0 mph27.4 kmh 29.73 in1006.8 mb 0.00 in0.0 mm 0.00 in/hr0.0 mm/hr 0.00 in0.0 mm
03:28 AM 58.3°F14.6°C 54.0°F12.2°C 86% 7.0 mph SW11.3 kmh SW 17.0 mph27.4 kmh 29.72 in1006.4 mb 0.00 in0.0 mm 0.00 in/hr0.0 mm/hr 0.00 in0.0 mm
03:27 AM 58.3°F14.6°C 54.0°F12.2°C 86% 7.0 mph SW11.3 kmh SW 17.0 mph27.4 kmh 29.73 in1006.8 mb 0.00 in0.0 mm 0.00 in/hr0.0 mm/hr 0.00 in0.0 mm
03:26 AM 58.3°F14.6°C 54.0°F12.2°C 86% 7.0 mph SW11.3 kmh SW 17.0 mph27.4 kmh 29.73 in1006.8 mb 0.00 in0.0 mm 0.00 in/hr0.0 mm/hr 0.00 in0.0 mm
03:25 AM 58.3°F14.6°C 54.0°F12.2°C 86% 7.0 mph SW11.3 kmh SW 17.0 mph27.4 kmh 29.73 in1006.8 mb 0.00 in0.0 mm 0.00 in/hr0.0 mm/hr 0.00 in0.0 mm
03:24 AM 58.1°F14.5°C 54.0°F12.2°C 86% 7.0 mph SW11.3 kmh SW 17.0 mph27.4 kmh 29.73 in1006.8 mb 0.00 in0.0 mm 0.00 in/hr0.0 mm/hr 0.00 in0.0 mm
03:23 AM 58.3°F14.6°C 54.0°F12.2°C 86% 7.0 mph SW11.3 kmh SW 17.0 mph27.4 kmh 29.73 in1006.8 mb 0.00 in0.0 mm 0.00 in/hr0.0 mm/hr 0.00 in0.0 mm
03:22 AM 58.1°F14.5°C 54.0°F12.2°C 86% 7.0 mph SW11.3 kmh SW 17.0 mph27.4 kmh 29.73 in1006.8 mb 0.00 in0.0 mm 0.00 in/hr0.0 mm/hr 0.00 in0.0 mm
03:21 AM 58.1°F14.5°C 54.0°F12.2°C 86% 7.0 mph SW11.3 kmh SW 17.0 mph27.4 kmh 29.73 in1006.8 mb 0.00 in0.0 mm 0.00 in/hr0.0 mm/hr 0.00 in0.0 mm
03:20 AM 58.3°F14.6°C 54.0°F12.2°C 86% 7.0 mph SW11.3 kmh SW 17.0 mph27.4 kmh 29.73 in1006.8 mb 0.00 in0.0 mm 0.00 in/hr0.0 mm/hr 0.00 in0.0 mm
03:19 AM 58.1°F14.5°C 54.0°F12.2°C 86% 6.0 mph SW9.7 kmh SW 13.0 mph20.9 kmh 29.73 in1006.8 mb 0.00 in0.0 mm 0.00 in/hr0.0 mm/hr 0.00 in0.0 mm
03:18 AM 58.1°F14.5°C 54.0°F12.2°C 86% 6.0 mph SW9.7 kmh SW 13.0 mph20.9 kmh 29.73 in1006.8 mb 0.00 in0.0 mm 0.00 in/hr0.0 mm/hr 0.00 in0.0 mm
03:17 AM 58.1°F14.5°C 54.3°F12.4°C 87% 6.0 mph SW9.7 kmh SW 13.0 mph20.9 kmh 29.73 in1006.8 mb 0.00 in0.0 mm 0.00 in/hr0.0 mm/hr 0.00 in0.0 mm
03:16 AM 58.1°F14.5°C 54.3°F12.4°C 87% 6.0 mph SW9.7 kmh SW 13.0 mph20.9 kmh 29.73 in1006.8 mb 0.00 in0.0 mm 0.00 in/hr0.0 mm/hr 0.00 in0.0 mm
03:15 AM 58.1°F14.5°C 54.3°F12.4°C 87% 6.0 mph SW9.7 kmh SW 13.0 mph20.9 kmh 29.73 in1006.8 mb 0.00 in0.0 mm 0.00 in/hr0.0 mm/hr 0.00 in0.0 mm
03:14 AM 58.1°F14.5°C 54.3°F12.4°C 87% 5.0 mph SW8.0 kmh SW 13.0 mph20.9 kmh 29.73 in1006.8 mb 0.00 in0.0 mm 0.00 in/hr0.0 mm/hr 0.00 in0.0 mm
03:13 AM 57.9°F14.4°C 54.1°F12.3°C 87% 5.0 mph SW8.0 kmh SW 12.0 mph19.3 kmh 29.73 in1006.8 mb 0.00 in0.0 mm 0.00 in/hr0.0 mm/hr 0.00 in0.0 mm
03:12 AM 57.9°F14.4°C 53.8°F12.1°C 86% 5.0 mph SW8.0 kmh SW 12.0 mph19.3 kmh 29.73 in1006.8 mb 0.00 in0.0 mm 0.00 in/hr0.0 mm/hr 0.00 in0.0 mm
03:11 AM 57.9°F14.4°C 53.8°F12.1°C 86% 5.0 mph SW8.0 kmh SW 12.0 mph19.3 kmh 29.73 in1006.8 mb 0.00 in0.0 mm 0.00 in/hr0.0 mm/hr 0.00 in0.0 mm
03:10 AM 57.9°F14.4°C 54.1°F12.3°C 87% 5.0 mph SW8.0 kmh SW 12.0 mph19.3 kmh 29.73 in1006.8 mb 0.00 in0.0 mm 0.00 in/hr0.0 mm/hr 0.00 in0.0 mm
03:09 AM 57.9°F14.4°C 54.1°F12.3°C 87% 5.0 mph SW8.0 kmh SW 12.0 mph19.3 kmh 29.74 in1007.1 mb 0.00 in0.0 mm 0.00 in/hr0.0 mm/hr 0.00 in0.0 mm
03:08 AM 57.9°F14.4°C 54.1°F12.3°C 87% 6.0 mph SW9.7 kmh SW 12.0 mph19.3 kmh 29.74 in1007.1 mb 0.00 in0.0 mm 0.00 in/hr0.0 mm/hr 0.00 in0.0 mm
03:07 AM 57.9°F14.4°C 54.1°F12.3°C 87% 6.0 mph SW9.7 kmh SW 12.0 mph19.3 kmh 29.74 in1007.1 mb 0.00 in0.0 mm 0.00 in/hr0.0 mm/hr 0.00 in0.0 mm
03:06 AM 57.9°F14.4°C 54.1°F12.3°C 87% 6.0 mph SW9.7 kmh SW 13.0 mph20.9 kmh 29.74 in1007.1 mb 0.00 in0.0 mm 0.00 in/hr0.0 mm/hr 0.00 in0.0 mm
03:05 AM 57.9°F14.4°C 54.1°F12.3°C 87% 6.0 mph SW9.7 kmh SW 13.0 mph20.9 kmh 29.74 in1007.1 mb 0.00 in0.0 mm 0.00 in/hr0.0 mm/hr 0.00 in0.0 mm
03:04 AM 57.9°F14.4°C 54.1°F12.3°C 87% 6.0 mph SW9.7 kmh SW 13.0 mph20.9 kmh 29.74 in1007.1 mb 0.00 in0.0 mm 0.00 in/hr0.0 mm/hr 0.00 in0.0 mm
03:03 AM 57.9°F14.4°C 54.1°F12.3°C 87% 7.0 mph SW11.3 kmh SW 13.0 mph20.9 kmh 29.74 in1007.1 mb 0.00 in0.0 mm 0.00 in/hr0.0 mm/hr 0.00 in0.0 mm
03:02 AM 57.9°F14.4°C 54.1°F12.3°C 87% 7.0 mph SW11.3 kmh SW 13.0 mph20.9 kmh 29.74 in1007.1 mb 0.00 in0.0 mm 0.00 in/hr0.0 mm/hr 0.00 in0.0 mm
03:01 AM 57.9°F14.4°C 54.1°F12.3°C 87% 7.0 mph SW11.3 kmh SW 13.0 mph20.9 kmh 29.74 in1007.1 mb 0.00 in0.0 mm 0.00 in/hr0.0 mm/hr 0.00 in0.0 mm
03:00 AM 57.7°F14.3°C 54.0°F12.2°C 87% 7.0 mph SW11.3 kmh SW 13.0 mph20.9 kmh 29.74 in1007.1 mb 0.00 in0.0 mm 0.00 in/hr0.0 mm/hr 0.00 in0.0 mm
02:59 AM 57.7°F14.3°C 54.0°F12.2°C 87% 7.0 mph SW11.3 kmh SW 13.0 mph20.9 kmh 29.74 in1007.1 mb 0.00 in0.0 mm 0.00 in/hr0.0 mm/hr 0.00 in0.0 mm
02:58 AM 57.7°F14.3°C 54.0°F12.2°C 87% 7.0 mph SW11.3 kmh SW 13.0 mph20.9 kmh 29.74 in1007.1 mb 0.00 in0.0 mm 0.00 in/hr0.0 mm/hr 0.00 in0.0 mm
02:57 AM 57.7°F14.3°C 54.0°F12.2°C 87% 7.0 mph SW11.3 kmh SW 13.0 mph20.9 kmh 29.74 in1007.1 mb 0.00 in0.0 mm 0.00 in/hr0.0 mm/hr 0.00 in0.0 mm
02:56 AM 57.7°F14.3°C 54.0°F12.2°C 87% 7.0 mph SW11.3 kmh SW 13.0 mph20.9 kmh 29.75 in1007.5 mb 0.00 in0.0 mm 0.00 in/hr0.0 mm/hr 0.00 in0.0 mm
02:55 AM 57.7°F14.3°C 54.0°F12.2°C 87% 6.0 mph SW9.7 kmh SW 13.0 mph20.9 kmh 29.75 in1007.5 mb 0.00 in0.0 mm 0.00 in/hr0.0 mm/hr 0.00 in0.0 mm
02:54 AM 57.7°F14.3°C 54.3°F12.4°C 88% 6.0 mph SW9.7 kmh SW 13.0 mph20.9 kmh 29.74 in1007.1 mb 0.00 in0.0 mm 0.00 in/hr0.0 mm/hr 0.00 in0.0 mm
02:53 AM 57.7°F14.3°C 54.3°F12.4°C 88% 6.0 mph SW9.7 kmh SW 13.0 mph20.9 kmh 29.75 in1007.5 mb 0.00 in0.0 mm 0.00 in/hr0.0 mm/hr 0.00 in0.0 mm
02:52 AM 57.7°F14.3°C 54.3°F12.4°C 88% 6.0 mph SW9.7 kmh SW 13.0 mph20.9 kmh 29.75 in1007.5 mb 0.00 in0.0 mm 0.00 in/hr0.0 mm/hr 0.00 in0.0 mm
02:51 AM 57.7°F14.3°C 54.1°F12.3°C 88% 6.0 mph SW9.7 kmh SW 13.0 mph20.9 kmh 29.75 in1007.5 mb 0.00 in0.0 mm 0.00 in/hr0.0 mm/hr 0.00 in0.0 mm
02:50 AM 57.7°F14.3°C 54.1°F12.3°C 88% 6.0 mph SW9.7 kmh SW 13.0 mph20.9 kmh 29.75 in1007.5 mb 0.00 in0.0 mm 0.00 in/hr0.0 mm/hr 0.00 in0.0 mm
02:49 AM 57.7°F14.3°C 54.1°F12.3°C 88% 6.0 mph SW9.7 kmh SW 13.0 mph20.9 kmh 29.75 in1007.5 mb 0.00 in0.0 mm 0.00 in/hr0.0 mm/hr 0.00 in0.0 mm
02:48 AM 57.7°F14.3°C 54.1°F12.3°C 88% 5.0 mph SW8.0 kmh SW 13.0 mph20.9 kmh 29.75 in1007.5 mb 0.00 in0.0 mm 0.00 in/hr0.0 mm/hr 0.00 in0.0 mm
02:47 AM 57.7°F14.3°C 54.1°F12.3°C 88% 6.0 mph SW9.7 kmh SW 11.0 mph17.7 kmh 29.75 in1007.5 mb 0.00 in0.0 mm 0.00 in/hr0.0 mm/hr 0.00 in0.0 mm
02:46 AM 57.7°F14.3°C 54.1°F12.3°C 88% 6.0 mph SW9.7 kmh SW 11.0 mph17.7 kmh 29.75 in1007.5 mb 0.00 in0.0 mm 0.00 in/hr0.0 mm/hr 0.00 in0.0 mm
02:45 AM 57.7°F14.3°C 54.1°F12.3°C 88% 6.0 mph SW9.7 kmh SW 11.0 mph17.7 kmh 29.75 in1007.5 mb 0.00 in0.0 mm 0.00 in/hr0.0 mm/hr 0.00 in0.0 mm
02:44 AM 57.7°F14.3°C 54.1°F12.3°C 88% 6.0 mph SW9.7 kmh SW 11.0 mph17.7 kmh 29.75 in1007.5 mb 0.00 in0.0 mm 0.00 in/hr0.0 mm/hr 0.00 in0.0 mm
02:43 AM 57.7°F14.3°C 54.1°F12.3°C 88% 6.0 mph SW9.7 kmh SW 11.0 mph17.7 kmh 29.75 in1007.5 mb 0.00 in0.0 mm 0.00 in/hr0.0 mm/hr 0.00 in0.0 mm
02:42 AM 57.7°F14.3°C 54.1°F12.3°C 88% 6.0 mph SW9.7 kmh SW 11.0 mph17.7 kmh 29.75 in1007.5 mb 0.00 in0.0 mm 0.00 in/hr0.0 mm/hr 0.00 in0.0 mm
02:41 AM 57.7°F14.3°C 54.1°F12.3°C 88% 6.0 mph SW9.7 kmh SW 11.0 mph17.7 kmh 29.75 in1007.5 mb 0.00 in0.0 mm 0.00 in/hr0.0 mm/hr 0.00 in0.0 mm
02:40 AM 57.7°F14.3°C 54.1°F12.3°C 88% 6.0 mph SW9.7 kmh SW 11.0 mph17.7 kmh 29.75 in1007.5 mb 0.00 in0.0 mm 0.00 in/hr0.0 mm/hr 0.00 in0.0 mm
02:39 AM 57.7°F14.3°C 54.1°F12.3°C 88% 6.0 mph SW9.7 kmh SW 11.0 mph17.7 kmh 29.76 in1007.8 mb 0.00 in0.0 mm 0.00 in/hr0.0 mm/hr 0.00 in0.0 mm
02:38 AM 57.7°F14.3°C 54.1°F12.3°C 88% 6.0 mph SW9.7 kmh SW 11.0 mph17.7 kmh 29.76 in1007.8 mb 0.00 in0.0 mm 0.00 in/hr0.0 mm/hr 0.00 in0.0 mm
02:37 AM 57.6°F14.2°C 54.1°F12.3°C 88% 5.0 mph SW8.0 kmh SW 11.0 mph17.7 kmh 29.76 in1007.8 mb 0.00 in0.0 mm 0.00 in/hr0.0 mm/hr 0.00 in0.0 mm
02:36 AM 57.6°F14.2°C 54.1°F12.3°C 88% 6.0 mph SW9.7 kmh SW 11.0 mph17.7 kmh 29.76 in1007.8 mb 0.00 in0.0 mm 0.00 in/hr0.0 mm/hr 0.00 in0.0 mm
02:35 AM 57.6°F14.2°C 54.1°F12.3°C 88% 5.0 mph SW8.0 kmh SW 11.0 mph17.7 kmh 29.76 in1007.8 mb 0.00 in0.0 mm 0.00 in/hr0.0 mm/hr 0.00 in0.0 mm
02:34 AM 57.6°F14.2°C 54.1°F12.3°C 88% 5.0 mph SW8.0 kmh SW 11.0 mph17.7 kmh 29.76 in1007.8 mb 0.00 in0.0 mm 0.00 in/hr0.0 mm/hr 0.00 in0.0 mm
02:33 AM 57.6°F14.2°C 54.1°F12.3°C 88% 5.0 mph SW8.0 kmh SW 11.0 mph17.7 kmh 29.76 in1007.8 mb 0.00 in0.0 mm 0.00 in/hr0.0 mm/hr 0.00 in0.0 mm
02:32 AM 57.6°F14.2°C 54.1°F12.3°C 88% 5.0 mph SW8.0 kmh SW 11.0 mph17.7 kmh 29.76 in1007.8 mb 0.00 in0.0 mm 0.00 in/hr0.0 mm/hr 0.00 in0.0 mm
02:31 AM 57.6°F14.2°C 54.0°F12.2°C 88% 5.0 mph SW8.0 kmh SW 11.0 mph17.7 kmh 29.76 in1007.8 mb 0.00 in0.0 mm 0.00 in/hr0.0 mm/hr 0.00 in0.0 mm
02:30 AM 57.6°F14.2°C 54.0°F12.2°C 88% 5.0 mph SW8.0 kmh SW 9.0 mph14.5 kmh 29.76 in1007.8 mb 0.00 in0.0 mm 0.00 in/hr0.0 mm/hr 0.00 in0.0 mm
02:29 AM 57.6°F14.2°C 54.0°F12.2°C 88% 5.0 mph SW8.0 kmh SW 9.0 mph14.5 kmh 29.76 in1007.8 mb 0.00 in0.0 mm 0.00 in/hr0.0 mm/hr 0.00 in0.0 mm
02:28 AM 57.6°F14.2°C 54.0°F12.2°C 88% 4.0 mph SW6.4 kmh SW 9.0 mph14.5 kmh 29.76 in1007.8 mb 0.00 in0.0 mm 0.00 in/hr0.0 mm/hr 0.00 in0.0 mm
02:27 AM 57.6°F14.2°C 54.0°F12.2°C 88% 4.0 mph WSW6.4 kmh WSW 9.0 mph14.5 kmh 29.76 in1007.8 mb 0.00 in0.0 mm 0.00 in/hr0.0 mm/hr 0.00 in0.0 mm
02:26 AM 57.6°F14.2°C 54.0°F12.2°C 88% 4.0 mph WSW6.4 kmh WSW 8.0 mph12.9 kmh 29.76 in1007.8 mb 0.00 in0.0 mm 0.00 in/hr0.0 mm/hr 0.00 in0.0 mm
02:25 AM 57.6°F14.2°C 54.0°F12.2°C 88% 4.0 mph WSW6.4 kmh WSW 8.0 mph12.9 kmh 29.76 in1007.8 mb 0.00 in0.0 mm 0.00 in/hr0.0 mm/hr 0.00 in0.0 mm
02:24 AM 57.6°F14.2°C 54.0°F12.2°C 88% 4.0 mph WSW6.4 kmh WSW 9.0 mph14.5 kmh 29.77 in1008.1 mb 0.00 in0.0 mm 0.00 in/hr0.0 mm/hr 0.00 in0.0 mm
02:23 AM 57.6°F14.2°C 54.0°F12.2°C 88% 4.0 mph WSW6.4 kmh WSW 9.0 mph14.5 kmh 29.77 in1008.1 mb 0.00 in0.0 mm 0.00 in/hr0.0 mm/hr 0.00 in0.0 mm
02:22 AM 57.6°F14.2°C 54.0°F12.2°C 88% 4.0 mph WSW6.4 kmh WSW 9.0 mph14.5 kmh 29.77 in1008.1 mb 0.00 in0.0 mm 0.00 in/hr0.0 mm/hr 0.00 in0.0 mm
02:21 AM 57.6°F14.2°C 54.0°F12.2°C 88% 5.0 mph WSW8.0 kmh WSW 9.0 mph14.5 kmh 29.77 in1008.1 mb 0.00 in0.0 mm 0.00 in/hr0.0 mm/hr 0.00 in0.0 mm
02:20 AM 57.6°F14.2°C 54.0°F12.2°C 88% 5.0 mph WSW8.0 kmh WSW 9.0 mph14.5 kmh 29.77 in1008.1 mb 0.00 in0.0 mm 0.00 in/hr0.0 mm/hr 0.00 in0.0 mm
02:19 AM 57.6°F14.2°C 54.0°F12.2°C 88% 5.0 mph WSW8.0 kmh WSW 9.0 mph14.5 kmh 29.77 in1008.1 mb 0.00 in0.0 mm 0.00 in/hr0.0 mm/hr 0.00 in0.0 mm
02:18 AM 57.6°F14.2°C 54.0°F12.2°C 88% 5.0 mph WSW8.0 kmh WSW 10.0 mph16.1 kmh 29.77 in1008.1 mb 0.00 in0.0 mm 0.00 in/hr0.0 mm/hr 0.00 in0.0 mm
02:17 AM 57.6°F14.2°C 54.0°F12.2°C 88% 5.0 mph WSW8.0 kmh WSW 10.0 mph16.1 kmh 29.77 in1008.1 mb 0.00 in0.0 mm 0.00 in/hr0.0 mm/hr 0.00 in0.0 mm
02:16 AM 57.6°F14.2°C 54.0°F12.2°C 88% 5.0 mph WSW8.0 kmh WSW 10.0 mph16.1 kmh 29.77 in1008.1 mb 0.00 in0.0 mm 0.00 in/hr0.0 mm/hr 0.00 in0.0 mm
02:15 AM 57.6°F14.2°C 54.0°F12.2°C 88% 5.0 mph WSW8.0 kmh WSW 10.0 mph16.1 kmh 29.77 in1008.1 mb 0.00 in0.0 mm 0.00 in/hr0.0 mm/hr 0.00 in0.0 mm
02:14 AM 57.6°F14.2°C 54.0°F12.2°C 88% 5.0 mph WSW8.0 kmh WSW 10.0 mph16.1 kmh 29.77 in1008.1 mb 0.00 in0.0 mm 0.00 in/hr0.0 mm/hr 0.00 in0.0 mm
02:13 AM 57.4°F14.1°C 54.0°F12.2°C 88% 5.0 mph WSW8.0 kmh WSW 12.0 mph19.3 kmh 29.77 in1008.1 mb 0.00 in0.0 mm 0.00 in/hr0.0 mm/hr 0.00 in0.0 mm
02:12 AM 57.4°F14.1°C 54.0°F12.2°C 88% 5.0 mph WSW8.0 kmh WSW 12.0 mph19.3 kmh 29.77 in1008.1 mb 0.00 in0.0 mm 0.00 in/hr0.0 mm/hr 0.00 in0.0 mm
02:11 AM 57.4°F14.1°C 54.0°F12.2°C 88% 5.0 mph WSW8.0 kmh WSW 12.0 mph19.3 kmh 29.77 in1008.1 mb 0.00 in0.0 mm 0.00 in/hr0.0 mm/hr 0.00 in0.0 mm
02:10 AM 57.4°F14.1°C 54.0°F12.2°C 88% 5.0 mph WSW8.0 kmh WSW 12.0 mph19.3 kmh 29.77 in1008.1 mb 0.00 in0.0 mm 0.00 in/hr0.0 mm/hr 0.00 in0.0 mm
02:09 AM 57.4°F14.1°C 54.0°F12.2°C 88% 5.0 mph WSW8.0 kmh WSW 12.0 mph19.3 kmh 29.77 in1008.1 mb 0.00 in0.0 mm 0.00 in/hr0.0 mm/hr 0.00 in0.0 mm
02:08 AM 57.4°F14.1°C 54.0°F12.2°C 88% 5.0 mph WSW8.0 kmh WSW 12.0 mph19.3 kmh 29.77 in1008.1 mb 0.00 in0.0 mm 0.00 in/hr0.0 mm/hr 0.00 in0.0 mm
02:07 AM 57.4°F14.1°C 53.8°F12.1°C 88% 5.0 mph WSW8.0 kmh WSW 12.0 mph19.3 kmh 29.77 in1008.1 mb 0.00 in0.0 mm 0.00 in/hr0.0 mm/hr 0.00 in0.0 mm
02:06 AM 57.4°F14.1°C 53.8°F12.1°C 88% 5.0 mph WSW8.0 kmh WSW 12.0 mph19.3 kmh 29.77 in1008.1 mb 0.00 in0.0 mm 0.00 in/hr0.0 mm/hr 0.00 in0.0 mm
02:05 AM 57.4°F14.1°C 53.8°F12.1°C 88% 5.0 mph WSW8.0 kmh WSW 12.0 mph19.3 kmh 29.77 in1008.1 mb 0.00 in0.0 mm 0.00 in/hr0.0 mm/hr 0.00 in0.0 mm
02:04 AM 57.4°F14.1°C 53.8°F12.1°C 88% 5.0 mph WSW8.0 kmh WSW 12.0 mph19.3 kmh 29.77 in1008.1 mb 0.00 in0.0 mm 0.00 in/hr0.0 mm/hr 0.00 in0.0 mm
02:03 AM 57.4°F14.1°C 53.8°F12.1°C 88% 5.0 mph WSW8.0 kmh WSW 11.0 mph17.7 kmh 29.78 in1008.5 mb 0.00 in0.0 mm 0.00 in/hr0.0 mm/hr 0.00 in0.0 mm
02:02 AM 57.4°F14.1°C 53.8°F12.1°C 88% 5.0 mph WSW8.0 kmh WSW 11.0 mph17.7 kmh 29.77 in1008.1 mb 0.00 in0.0 mm 0.00 in/hr0.0 mm/hr 0.00 in0.0 mm
02:01 AM 57.4°F14.1°C 53.8°F12.1°C 88% 5.0 mph WSW8.0 kmh WSW 11.0 mph17.7 kmh 29.77 in1008.1 mb 0.00 in0.0 mm 0.00 in/hr0.0 mm/hr 0.00 in0.0 mm
02:00 AM 57.4°F14.1°C 53.8°F12.1°C 88% 5.0 mph WSW8.0 kmh WSW 8.0 mph12.9 kmh 29.77 in1008.1 mb 0.00 in0.0 mm 0.00 in/hr0.0 mm/hr 0.00 in0.0 mm
01:59 AM 57.4°F14.1°C 53.8°F12.1°C 88% 5.0 mph WSW8.0 kmh WSW 9.0 mph14.5 kmh 29.77 in1008.1 mb 0.00 in0.0 mm 0.00 in/hr0.0 mm/hr 0.00 in0.0 mm
01:58 AM 57.4°F14.1°C 53.8°F12.1°C 88% 5.0 mph WSW8.0 kmh WSW 11.0 mph17.7 kmh 29.78 in1008.5 mb 0.00 in0.0 mm 0.00 in/hr0.0 mm/hr 0.00 in0.0 mm
01:57 AM 57.4°F14.1°C 53.8°F12.1°C 88% 5.0 mph WSW8.0 kmh WSW 11.0 mph17.7 kmh 29.78 in1008.5 mb 0.00 in0.0 mm 0.00 in/hr0.0 mm/hr 0.00 in0.0 mm
01:56 AM 57.4°F14.1°C 53.8°F12.1°C 88% 5.0 mph SW8.0 kmh SW 11.0 mph17.7 kmh 29.78 in1008.5 mb 0.00 in0.0 mm 0.00 in/hr0.0 mm/hr 0.00 in0.0 mm
01:55 AM 57.4°F14.1°C 53.8°F12.1°C 88% 6.0 mph SW9.7 kmh SW 11.0 mph17.7 kmh 29.78 in1008.5 mb 0.00 in0.0 mm 0.00 in/hr0.0 mm/hr 0.00 in0.0 mm
01:54 AM 57.4°F14.1°C 53.8°F12.1°C 88% 6.0 mph SW9.7 kmh SW 11.0 mph17.7 kmh 29.78 in1008.5 mb 0.00 in0.0 mm 0.00 in/hr0.0 mm/hr 0.00 in0.0 mm
01:53 AM 57.4°F14.1°C 53.8°F12.1°C 88% 6.0 mph SW9.7 kmh SW 11.0 mph17.7 kmh 29.78 in1008.5 mb 0.00 in0.0 mm 0.00 in/hr0.0 mm/hr 0.00 in0.0 mm
01:52 AM 57.4°F14.1°C 53.8°F12.1°C 88% 6.0 mph WSW9.7 kmh WSW 11.0 mph17.7 kmh 29.78 in1008.5 mb 0.00 in0.0 mm 0.00 in/hr0.0 mm/hr 0.00 in0.0 mm
01:51 AM 57.4°F14.1°C 53.8°F12.1°C 88% 7.0 mph WSW11.3 kmh WSW 11.0 mph17.7 kmh 29.78 in1008.5 mb 0.00 in0.0 mm 0.00 in/hr0.0 mm/hr 0.00 in0.0 mm
01:50 AM 57.4°F14.1°C 53.8°F12.1°C 88% 7.0 mph WSW11.3 kmh WSW 12.0 mph19.3 kmh 29.78 in1008.5 mb 0.00 in0.0 mm 0.00 in/hr0.0 mm/hr 0.00 in0.0 mm
01:49 AM 57.4°F14.1°C 53.8°F12.1°C 88% 7.0 mph WSW11.3 kmh WSW 12.0 mph19.3 kmh 29.78 in1008.5 mb 0.00 in0.0 mm 0.00 in/hr0.0 mm/hr 0.00 in0.0 mm
01:48 AM 57.4°F14.1°C 53.8°F12.1°C 88% 7.0 mph WSW11.3 kmh WSW 12.0 mph19.3 kmh 29.78 in1008.5 mb 0.00 in0.0 mm 0.00 in/hr0.0 mm/hr 0.00 in0.0 mm
01:47 AM 57.4°F14.1°C 53.8°F12.1°C 88% 7.0 mph WSW11.3 kmh WSW 12.0 mph19.3 kmh 29.78 in1008.5 mb 0.00 in0.0 mm 0.00 in/hr0.0 mm/hr 0.00 in0.0 mm
01:46 AM 57.4°F14.1°C 53.8°F12.1°C 88% 7.0 mph WSW11.3 kmh WSW 12.0 mph19.3 kmh 29.78 in1008.5 mb 0.00 in0.0 mm 0.00 in/hr0.0 mm/hr 0.00 in0.0 mm
01:45 AM 57.4°F14.1°C 53.4°F11.9°C 87% 6.0 mph WSW9.7 kmh WSW 12.0 mph19.3 kmh 29.78 in1008.5 mb 0.00 in0.0 mm 0.00 in/hr0.0 mm/hr 0.00 in0.0 mm
01:44 AM 57.4°F14.1°C 53.4°F11.9°C 87% 6.0 mph WSW9.7 kmh WSW 12.0 mph19.3 kmh 29.78 in1008.5 mb 0.00 in0.0 mm 0.00 in/hr0.0 mm/hr 0.00 in0.0 mm
01:43 AM 57.4°F14.1°C 53.4°F11.9°C 87% 6.0 mph WSW9.7 kmh WSW 12.0 mph19.3 kmh 29.78 in1008.5 mb 0.00 in0.0 mm 0.00 in/hr0.0 mm/hr 0.00 in0.0 mm
01:42 AM 57.4°F14.1°C 53.6°F12.0°C 87% 6.0 mph WSW9.7 kmh WSW 12.0 mph19.3 kmh 29.78 in1008.5 mb 0.00 in0.0 mm 0.00 in/hr0.0 mm/hr 0.00 in0.0 mm
01:41 AM 57.4°F14.1°C 53.6°F12.0°C 87% 6.0 mph WSW9.7 kmh WSW 13.0 mph20.9 kmh 29.78 in1008.5 mb 0.00 in0.0 mm 0.00 in/hr0.0 mm/hr 0.00 in0.0 mm
01:40 AM 57.4°F14.1°C 53.6°F12.0°C 87% 7.0 mph WSW11.3 kmh WSW 13.0 mph20.9 kmh 29.78 in1008.5 mb 0.00 in0.0 mm 0.00 in/hr0.0 mm/hr 0.00 in0.0 mm
01:39 AM 57.4°F14.1°C 53.6°F12.0°C 87% 7.0 mph WSW11.3 kmh WSW 13.0 mph20.9 kmh 29.78 in1008.5 mb 0.00 in0.0 mm 0.00 in/hr0.0 mm/hr 0.00 in0.0 mm
01:38 AM 57.4°F14.1°C 53.6°F12.0°C 87% 7.0 mph WSW11.3 kmh WSW 13.0 mph20.9 kmh 29.78 in1008.5 mb 0.00 in0.0 mm 0.00 in/hr0.0 mm/hr 0.00 in0.0 mm
01:37 AM 57.6°F14.2°C 53.6°F12.0°C 87% 7.0 mph WSW11.3 kmh WSW 13.0 mph20.9 kmh 29.78 in1008.5 mb 0.00 in0.0 mm 0.00 in/hr0.0 mm/hr 0.00 in0.0 mm
01:36 AM 57.6°F14.2°C 53.6°F12.0°C 87% 7.0 mph WSW11.3 kmh WSW 13.0 mph20.9 kmh 29.79 in1008.8 mb 0.00 in0.0 mm 0.00 in/hr0.0 mm/hr 0.00 in0.0 mm
01:35 AM 57.6°F14.2°C 53.6°F12.0°C 87% 7.0 mph WSW11.3 kmh WSW 13.0 mph20.9 kmh 29.79 in1008.8 mb 0.00 in0.0 mm 0.00 in/hr0.0 mm/hr 0.00 in0.0 mm
01:34 AM 57.6°F14.2°C 53.6°F12.0°C 87% 8.0 mph WSW12.9 kmh WSW 13.0 mph20.9 kmh 29.79 in1008.8 mb 0.00 in0.0 mm 0.00 in/hr0.0 mm/hr 0.00 in0.0 mm
01:33 AM 57.6°F14.2°C 53.6°F12.0°C 87% 8.0 mph WSW12.9 kmh WSW 15.0 mph24.1 kmh 29.79 in1008.8 mb 0.00 in0.0 mm 0.00 in/hr0.0 mm/hr 0.00 in0.0 mm
01:32 AM 57.6°F14.2°C 53.6°F12.0°C 87% 8.0 mph WSW12.9 kmh WSW 15.0 mph24.1 kmh 29.79 in1008.8 mb 0.00 in0.0 mm 0.00 in/hr0.0 mm/hr 0.00 in0.0 mm
01:31 AM 57.6°F14.2°C 53.6°F12.0°C 87% 8.0 mph WSW12.9 kmh WSW 15.0 mph24.1 kmh 29.79 in1008.8 mb 0.00 in0.0 mm 0.00 in/hr0.0 mm/hr 0.00 in0.0 mm
01:30 AM 57.6°F14.2°C 53.6°F12.0°C 87% 8.0 mph WSW12.9 kmh WSW 15.0 mph24.1 kmh 29.79 in1008.8 mb 0.00 in0.0 mm 0.00 in/hr0.0 mm/hr 0.00 in0.0 mm
01:29 AM 57.6°F14.2°C 53.6°F12.0°C 87% 8.0 mph WSW12.9 kmh WSW 15.0 mph24.1 kmh 29.79 in1008.8 mb 0.00 in0.0 mm 0.00 in/hr0.0 mm/hr 0.00 in0.0 mm
01:28 AM 57.6°F14.2°C 53.8°F12.1°C 87% 8.0 mph WSW12.9 kmh WSW 15.0 mph24.1 kmh 29.79 in1008.8 mb 0.00 in0.0 mm 0.00 in/hr0.0 mm/hr 0.00 in0.0 mm
01:27 AM 57.6°F14.2°C 53.8°F12.1°C 87% 7.0 mph WSW11.3 kmh WSW 15.0 mph24.1 kmh 29.79 in1008.8 mb 0.00 in0.0 mm 0.00 in/hr0.0 mm/hr 0.00 in0.0 mm
01:26 AM 57.6°F14.2°C 53.8°F12.1°C 87% 7.0 mph WSW11.3 kmh WSW 15.0 mph24.1 kmh 29.79 in1008.8 mb 0.00 in0.0 mm 0.00 in/hr0.0 mm/hr 0.00 in0.0 mm
01:25 AM 57.6°F14.2°C 54.1°F12.3°C 88% 7.0 mph WSW11.3 kmh WSW 15.0 mph24.1 kmh 29.79 in1008.8 mb 0.00 in0.0 mm 0.00 in/hr0.0 mm/hr 0.00 in0.0 mm
01:24 AM 57.6°F14.2°C 54.1°F12.3°C 88% 7.0 mph WSW11.3 kmh WSW 15.0 mph24.1 kmh 29.79 in1008.8 mb 0.00 in0.0 mm 0.00 in/hr0.0 mm/hr 0.00 in0.0 mm
01:23 AM 57.6°F14.2°C 54.1°F12.3°C 88% 7.0 mph WSW11.3 kmh WSW 15.0 mph24.1 kmh 29.79 in1008.8 mb 0.00 in0.0 mm 0.00 in/hr0.0 mm/hr 0.00 in0.0 mm
01:22 AM 57.6°F14.2°C 54.1°F12.3°C 88% 7.0 mph WSW11.3 kmh WSW 15.0 mph24.1 kmh 29.79 in1008.8 mb 0.00 in0.0 mm 0.00 in/hr0.0 mm/hr 0.00 in0.0 mm
01:21 AM 57.6°F14.2°C 54.1°F12.3°C 88% 6.0 mph WSW9.7 kmh WSW 15.0 mph24.1 kmh 29.79 in1008.8 mb 0.00 in0.0 mm 0.00 in/hr0.0 mm/hr 0.00 in0.0 mm
01:20 AM 57.6°F14.2°C 54.1°F12.3°C 88% 6.0 mph WSW9.7 kmh WSW 13.0 mph20.9 kmh 29.79 in1008.8 mb 0.00 in0.0 mm 0.00 in/hr0.0 mm/hr 0.00 in0.0 mm
01:19 AM 57.6°F14.2°C 53.8°F12.1°C 87% 6.0 mph WSW9.7 kmh WSW 13.0 mph20.9 kmh 29.79 in1008.8 mb 0.00 in0.0 mm 0.00 in/hr0.0 mm/hr 0.00 in0.0 mm
01:18 AM 57.6°F14.2°C 53.8°F12.1°C 87% 6.0 mph WSW9.7 kmh WSW 11.0 mph17.7 kmh 29.79 in1008.8 mb 0.00 in0.0 mm 0.00 in/hr0.0 mm/hr 0.00 in0.0 mm
01:17 AM 57.6°F14.2°C 53.8°F12.1°C 87% 6.0 mph WSW9.7 kmh WSW 11.0 mph17.7 kmh 29.79 in1008.8 mb 0.00 in0.0 mm 0.00 in/hr0.0 mm/hr 0.00 in0.0 mm
01:16 AM 57.6°F14.2°C 53.8°F12.1°C 87% 7.0 mph WSW11.3 kmh WSW 11.0 mph17.7 kmh 29.79 in1008.8 mb 0.00 in0.0 mm 0.00 in/hr0.0 mm/hr 0.00 in0.0 mm
01:15 AM 57.6°F14.2°C 53.8°F12.1°C 87% 7.0 mph WSW11.3 kmh WSW 16.0 mph25.7 kmh 29.79 in1008.8 mb 0.00 in0.0 mm 0.00 in/hr0.0 mm/hr 0.00 in0.0 mm
01:14 AM 57.6°F14.2°C 53.8°F12.1°C 87% 7.0 mph WSW11.3 kmh WSW 16.0 mph25.7 kmh 29.79 in1008.8 mb 0.00 in0.0 mm 0.00 in/hr0.0 mm/hr 0.00 in0.0 mm
01:13 AM 57.6°F14.2°C 53.8°F12.1°C 87% 7.0 mph WSW11.3 kmh WSW 16.0 mph25.7 kmh 29.79 in1008.8 mb 0.00 in0.0 mm 0.00 in/hr0.0 mm/hr 0.00 in0.0 mm
01:12 AM 57.6°F14.2°C 53.8°F12.1°C 87% 7.0 mph WSW11.3 kmh WSW 16.0 mph25.7 kmh 29.79 in1008.8 mb 0.00 in0.0 mm 0.00 in/hr0.0 mm/hr 0.00 in0.0 mm
01:11 AM 57.6°F14.2°C 53.8°F12.1°C 87% 7.0 mph WSW11.3 kmh WSW 16.0 mph25.7 kmh 29.79 in1008.8 mb 0.00 in0.0 mm 0.00 in/hr0.0 mm/hr 0.00 in0.0 mm
01:10 AM 57.6°F14.2°C 53.8°F12.1°C 87% 7.0 mph WSW11.3 kmh WSW 16.0 mph25.7 kmh 29.79 in1008.8 mb 0.00 in0.0 mm 0.00 in/hr0.0 mm/hr 0.00 in0.0 mm
01:09 AM 57.6°F14.2°C 53.8°F12.1°C 87% 7.0 mph WSW11.3 kmh WSW 16.0 mph25.7 kmh 29.79 in1008.8 mb 0.00 in0.0 mm 0.00 in/hr0.0 mm/hr 0.00 in0.0 mm
01:08 AM 57.6°F14.2°C 53.6°F12.0°C 87% 7.0 mph WSW11.3 kmh WSW 16.0 mph25.7 kmh 29.79 in1008.8 mb 0.00 in0.0 mm 0.00 in/hr0.0 mm/hr 0.00 in0.0 mm
01:07 AM 57.6°F14.2°C 53.8°F12.1°C 87% 7.0 mph WSW11.3 kmh WSW 16.0 mph25.7 kmh 29.79 in1008.8 mb 0.00 in0.0 mm 0.00 in/hr0.0 mm/hr 0.00 in0.0 mm
01:06 AM 57.6°F14.2°C 53.8°F12.1°C 87% 6.0 mph WSW9.7 kmh WSW 16.0 mph25.7 kmh 29.79 in1008.8 mb 0.00 in0.0 mm 0.00 in/hr0.0 mm/hr 0.00 in0.0 mm
01:05 AM 57.6°F14.2°C 53.8°F12.1°C 87% 6.0 mph WSW9.7 kmh WSW 12.0 mph19.3 kmh 29.79 in1008.8 mb 0.00 in0.0 mm 0.00 in/hr0.0 mm/hr 0.00 in0.0 mm
01:04 AM 57.6°F14.2°C 54.1°F12.3°C 88% 6.0 mph WSW9.7 kmh WSW 12.0 mph19.3 kmh 29.79 in1008.8 mb 0.00 in0.0 mm 0.00 in/hr0.0 mm/hr 0.00 in0.0 mm
01:03 AM 57.6°F14.2°C 54.1°F12.3°C 88% 7.0 mph WSW11.3 kmh WSW 12.0 mph19.3 kmh 29.79 in1008.8 mb 0.00 in0.0 mm 0.00 in/hr0.0 mm/hr 0.00 in0.0 mm
01:02 AM 57.6°F14.2°C 54.1°F12.3°C 88% 6.0 mph WSW9.7 kmh WSW 13.0 mph20.9 kmh 29.79 in1008.8 mb 0.00 in0.0 mm 0.00 in/hr0.0 mm/hr 0.00 in0.0 mm
01:01 AM 57.7°F14.3°C 54.1°F12.3°C 88% 6.0 mph WSW9.7 kmh WSW 13.0 mph20.9 kmh 29.79 in1008.8 mb 0.00 in0.0 mm 0.00 in/hr0.0 mm/hr 0.00 in0.0 mm
01:00 AM 57.7°F14.3°C 54.1°F12.3°C 88% 7.0 mph WSW11.3 kmh WSW 13.0 mph20.9 kmh 29.80 in1009.1 mb 0.00 in0.0 mm 0.00 in/hr0.0 mm/hr 0.00 in0.0 mm
12:59 AM 57.7°F14.3°C 54.1°F12.3°C 88% 7.0 mph WSW11.3 kmh WSW 16.0 mph25.7 kmh 29.80 in1009.1 mb 0.00 in0.0 mm 0.00 in/hr0.0 mm/hr 0.00 in0.0 mm
12:58 AM 57.6°F14.2°C 54.1°F12.3°C 88% 7.0 mph WSW11.3 kmh WSW 16.0 mph25.7 kmh 29.80 in1009.1 mb 0.00 in0.0 mm 0.00 in/hr0.0 mm/hr 0.00 in0.0 mm
12:57 AM 57.7°F14.3°C 54.1°F12.3°C 88% 7.0 mph WSW11.3 kmh WSW 16.0 mph25.7 kmh 29.80 in1009.1 mb 0.00 in0.0 mm 0.00 in/hr0.0 mm/hr 0.00 in0.0 mm
12:56 AM 57.6°F14.2°C 54.1°F12.3°C 88% 7.0 mph WSW11.3 kmh WSW 16.0 mph25.7 kmh 29.80 in1009.1 mb 0.00 in0.0 mm 0.00 in/hr0.0 mm/hr 0.00 in0.0 mm
12:55 AM 57.6°F14.2°C 54.1°F12.3°C 88% 7.0 mph WSW11.3 kmh WSW 16.0 mph25.7 kmh 29.80 in1009.1 mb 0.00 in0.0 mm 0.00 in/hr0.0 mm/hr 0.00 in0.0 mm
12:54 AM 57.6°F14.2°C 54.1°F12.3°C 88% 7.0 mph WSW11.3 kmh WSW 16.0 mph25.7 kmh 29.80 in1009.1 mb 0.00 in0.0 mm 0.00 in/hr0.0 mm/hr 0.00 in0.0 mm
12:53 AM 57.6°F14.2°C 54.1°F12.3°C 88% 7.0 mph WSW11.3 kmh WSW 16.0 mph25.7 kmh 29.79 in1008.8 mb 0.00 in0.0 mm 0.00 in/hr0.0 mm/hr 0.00 in0.0 mm
12:52 AM 57.6°F14.2°C 54.1°F12.3°C 88% 7.0 mph WSW11.3 kmh WSW 16.0 mph25.7 kmh 29.80 in1009.1 mb 0.00 in0.0 mm 0.00 in/hr0.0 mm/hr 0.00 in0.0 mm
12:51 AM 57.6°F14.2°C 54.1°F12.3°C 88% 7.0 mph WSW11.3 kmh WSW 16.0 mph25.7 kmh 29.80 in1009.1 mb 0.00 in0.0 mm 0.00 in/hr0.0 mm/hr 0.00 in0.0 mm
12:50 AM 57.6°F14.2°C 54.1°F12.3°C 88% 7.0 mph WSW11.3 kmh WSW 16.0 mph25.7 kmh 29.80 in1009.1 mb 0.00 in0.0 mm 0.00 in/hr0.0 mm/hr 0.00 in0.0 mm
12:49 AM 57.6°F14.2°C 54.1°F12.3°C 88% 7.0 mph WSW11.3 kmh WSW 16.0 mph25.7 kmh 29.80 in1009.1 mb 0.00 in0.0 mm 0.00 in/hr0.0 mm/hr 0.00 in0.0 mm
12:48 AM 57.6°F14.2°C 54.1°F12.3°C 88% 7.0 mph WSW11.3 kmh WSW 16.0 mph25.7 kmh 29.80 in1009.1 mb 0.00 in0.0 mm 0.00 in/hr0.0 mm/hr 0.00 in0.0 mm
12:47 AM 57.6°F14.2°C 54.3°F12.4°C 89% 7.0 mph WSW11.3 kmh WSW 16.0 mph25.7 kmh 29.80 in1009.1 mb 0.00 in0.0 mm 0.00 in/hr0.0 mm/hr 0.00 in0.0 mm
12:46 AM 57.6°F14.2°C 54.3°F12.4°C 89% 7.0 mph WSW11.3 kmh WSW 16.0 mph25.7 kmh 29.80 in1009.1 mb 0.00 in0.0 mm 0.00 in/hr0.0 mm/hr 0.00 in0.0 mm
12:45 AM 57.6°F14.2°C 54.3°F12.4°C 89% 7.0 mph WSW11.3 kmh WSW 16.0 mph25.7 kmh 29.80 in1009.1 mb 0.00 in0.0 mm 0.00 in/hr0.0 mm/hr 0.00 in0.0 mm
12:44 AM 57.6°F14.2°C 54.3°F12.4°C 89% 7.0 mph WSW11.3 kmh WSW 14.0 mph22.5 kmh 29.80 in1009.1 mb 0.00 in0.0 mm 0.00 in/hr0.0 mm/hr 0.00 in0.0 mm
12:43 AM 57.6°F14.2°C 54.3°F12.4°C 89% 6.0 mph WSW9.7 kmh WSW 14.0 mph22.5 kmh 29.80 in1009.1 mb 0.00 in0.0 mm 0.00 in/hr0.0 mm/hr 0.00 in0.0 mm
12:42 AM 57.6°F14.2°C 54.3°F12.4°C 89% 6.0 mph WSW9.7 kmh WSW 14.0 mph22.5 kmh 29.80 in1009.1 mb 0.00 in0.0 mm 0.00 in/hr0.0 mm/hr 0.00 in0.0 mm
12:41 AM 57.6°F14.2°C 54.3°F12.4°C 89% 6.0 mph WSW9.7 kmh WSW 14.0 mph22.5 kmh 29.80 in1009.1 mb 0.00 in0.0 mm 0.00 in/hr0.0 mm/hr 0.00 in0.0 mm
12:40 AM 57.4°F14.1°C 54.1°F12.3°C 89% 6.0 mph WSW9.7 kmh WSW 14.0 mph22.5 kmh 29.80 in1009.1 mb 0.00 in0.0 mm 0.00 in/hr0.0 mm/hr 0.00 in0.0 mm
12:39 AM 57.4°F14.1°C 54.1°F12.3°C 89% 5.0 mph WSW8.0 kmh WSW 14.0 mph22.5 kmh 29.80 in1009.1 mb 0.00 in0.0 mm 0.00 in/hr0.0 mm/hr 0.00 in0.0 mm
12:38 AM 57.4°F14.1°C 54.1°F12.3°C 89% 5.0 mph WSW8.0 kmh WSW 14.0 mph22.5 kmh 29.80 in1009.1 mb 0.00 in0.0 mm 0.00 in/hr0.0 mm/hr 0.00 in0.0 mm
12:37 AM 57.4°F14.1°C 54.1°F12.3°C 89% 5.0 mph SW8.0 kmh SW 14.0 mph22.5 kmh 29.80 in1009.1 mb 0.00 in0.0 mm 0.00 in/hr0.0 mm/hr 0.00 in0.0 mm
12:36 AM 57.4°F14.1°C 54.1°F12.3°C 89% 5.0 mph SW8.0 kmh SW 13.0 mph20.9 kmh 29.80 in1009.1 mb 0.00 in0.0 mm 0.00 in/hr0.0 mm/hr 0.00 in0.0 mm
12:35 AM 57.4°F14.1°C 54.1°F12.3°C 89% 5.0 mph SW8.0 kmh SW 11.0 mph17.7 kmh 29.80 in1009.1 mb 0.00 in0.0 mm 0.00 in/hr0.0 mm/hr 0.00 in0.0 mm
12:34 AM 57.4°F14.1°C 54.1°F12.3°C 89% 5.0 mph SW8.0 kmh SW 11.0 mph17.7 kmh 29.80 in1009.1 mb 0.00 in0.0 mm 0.00 in/hr0.0 mm/hr 0.00 in0.0 mm
12:33 AM 57.4°F14.1°C 54.3°F12.4°C 90% 5.0 mph SW8.0 kmh SW 13.0 mph20.9 kmh 29.80 in1009.1 mb 0.00 in0.0 mm 0.00 in/hr0.0 mm/hr 0.00 in0.0 mm
12:32 AM 57.4°F14.1°C 54.3°F12.4°C 90% 5.0 mph SW8.0 kmh SW 13.0 mph20.9 kmh 29.80 in1009.1 mb 0.00 in0.0 mm 0.00 in/hr0.0 mm/hr 0.00 in0.0 mm
12:31 AM 57.4°F14.1°C 54.3°F12.4°C 90% 5.0 mph SW8.0 kmh SW 13.0 mph20.9 kmh 29.80 in1009.1 mb 0.00 in0.0 mm 0.00 in/hr0.0 mm/hr 0.00 in0.0 mm
12:30 AM 57.4°F14.1°C 54.3°F12.4°C 90% 5.0 mph WSW8.0 kmh WSW 13.0 mph20.9 kmh 29.80 in1009.1 mb 0.00 in0.0 mm 0.00 in/hr0.0 mm/hr 0.00 in0.0 mm
12:29 AM 57.4°F14.1°C 54.3°F12.4°C 90% 6.0 mph WSW9.7 kmh WSW 13.0 mph20.9 kmh 29.80 in1009.1 mb 0.00 in0.0 mm 0.00 in/hr0.0 mm/hr 0.00 in0.0 mm
12:28 AM 57.4°F14.1°C 54.3°F12.4°C 90% 6.0 mph WSW9.7 kmh WSW 13.0 mph20.9 kmh 29.80 in1009.1 mb 0.00 in0.0 mm 0.00 in/hr0.0 mm/hr 0.00 in0.0 mm
12:27 AM 57.4°F14.1°C 54.3°F12.4°C 90% 5.0 mph WSW8.0 kmh WSW 13.0 mph20.9 kmh 29.80 in1009.1 mb 0.00 in0.0 mm 0.00 in/hr0.0 mm/hr 0.00 in0.0 mm
12:26 AM 57.4°F14.1°C 54.3°F12.4°C 90% 5.0 mph WSW8.0 kmh WSW 13.0 mph20.9 kmh 29.80 in1009.1 mb 0.00 in0.0 mm 0.00 in/hr0.0 mm/hr 0.00 in0.0 mm
12:25 AM 57.2°F14.0°C 54.3°F12.4°C 90% 5.0 mph WSW8.0 kmh WSW 13.0 mph20.9 kmh 29.80 in1009.1 mb 0.00 in0.0 mm 0.00 in/hr0.0 mm/hr 0.00 in0.0 mm
12:24 AM 57.2°F14.0°C 54.3°F12.4°C 90% 4.0 mph WSW6.4 kmh WSW 13.0 mph20.9 kmh 29.80 in1009.1 mb 0.00 in0.0 mm 0.00 in/hr0.0 mm/hr 0.00 in0.0 mm
12:23 AM 57.2°F14.0°C 54.3°F12.4°C 90% 4.0 mph WSW6.4 kmh WSW 13.0 mph20.9 kmh 29.80 in1009.1 mb 0.00 in0.0 mm 0.00 in/hr0.0 mm/hr 0.00 in0.0 mm
12:22 AM 57.4°F14.1°C 54.3°F12.4°C 90% 3.0 mph WSW4.8 kmh WSW 12.0 mph19.3 kmh 29.80 in1009.1 mb 0.00 in0.0 mm 0.00 in/hr0.0 mm/hr 0.00 in0.0 mm
12:21 AM 57.4°F14.1°C 54.3°F12.4°C 90% 3.0 mph WSW4.8 kmh WSW 10.0 mph16.1 kmh 29.80 in1009.1 mb 0.00 in0.0 mm 0.00 in/hr0.0 mm/hr 0.00 in0.0 mm
12:20 AM 57.4°F14.1°C 54.3°F12.4°C 90% 3.0 mph WSW4.8 kmh WSW 8.0 mph12.9 kmh 29.80 in1009.1 mb 0.00 in0.0 mm 0.00 in/hr0.0 mm/hr 0.00 in0.0 mm
12:19 AM 57.4°F14.1°C 54.3°F12.4°C 90% 3.0 mph WSW4.8 kmh WSW 8.0 mph12.9 kmh 29.80 in1009.1 mb 0.00 in0.0 mm 0.00 in/hr0.0 mm/hr 0.00 in0.0 mm
12:18 AM 57.4°F14.1°C 54.3°F12.4°C 90% 3.0 mph WSW4.8 kmh WSW 8.0 mph12.9 kmh 29.80 in1009.1 mb 0.00 in0.0 mm 0.00 in/hr0.0 mm/hr 0.00 in0.0 mm
12:17 AM 57.4°F14.1°C 54.3°F12.4°C 90% 3.0 mph WSW4.8 kmh WSW 8.0 mph12.9 kmh 29.80 in1009.1 mb 0.00 in0.0 mm 0.00 in/hr0.0 mm/hr 0.00 in0.0 mm
12:16 AM 57.4°F14.1°C 54.3°F12.4°C 90% 3.0 mph WSW4.8 kmh WSW 8.0 mph12.9 kmh 29.80 in1009.1 mb 0.00 in0.0 mm 0.00 in/hr0.0 mm/hr 0.00 in0.0 mm
12:15 AM 57.4°F14.1°C 54.3°F12.4°C 90% 3.0 mph WSW4.8 kmh WSW 8.0 mph12.9 kmh 29.80 in1009.1 mb 0.00 in0.0 mm 0.00 in/hr0.0 mm/hr 0.00 in0.0 mm
12:14 AM 57.4°F14.1°C 54.3°F12.4°C 90% 3.0 mph WSW4.8 kmh WSW 8.0 mph12.9 kmh 29.80 in1009.1 mb 0.00 in0.0 mm 0.00 in/hr0.0 mm/hr 0.00 in0.0 mm
12:13 AM 57.4°F14.1°C 54.3°F12.4°C 90% 3.0 mph WSW4.8 kmh WSW 8.0 mph12.9 kmh 29.80 in1009.1 mb 0.00 in0.0 mm 0.00 in/hr0.0 mm/hr 0.00 in0.0 mm
12:12 AM 57.4°F14.1°C 54.3°F12.4°C 90% 3.0 mph WSW4.8 kmh WSW 8.0 mph12.9 kmh 29.80 in1009.1 mb 0.00 in0.0 mm 0.00 in/hr0.0 mm/hr 0.00 in0.0 mm
12:11 AM 57.4°F14.1°C 54.3°F12.4°C 90% 3.0 mph WSW4.8 kmh WSW 8.0 mph12.9 kmh 29.81 in1009.5 mb 0.00 in0.0 mm 0.00 in/hr0.0 mm/hr 0.00 in0.0 mm
12:10 AM 57.4°F14.1°C 54.3°F12.4°C 90% 3.0 mph WSW4.8 kmh WSW 8.0 mph12.9 kmh 29.81 in1009.5 mb 0.00 in0.0 mm 0.00 in/hr0.0 mm/hr 0.00 in0.0 mm
12:09 AM 57.4°F14.1°C 54.3°F12.4°C 90% 3.0 mph WSW4.8 kmh WSW 8.0 mph12.9 kmh 29.81 in1009.5 mb 0.00 in0.0 mm 0.00 in/hr0.0 mm/hr 0.00 in0.0 mm
12:08 AM 57.4°F14.1°C 54.3°F12.4°C 90% 3.0 mph WSW4.8 kmh WSW 9.0 mph14.5 kmh 29.81 in1009.5 mb 0.00 in0.0 mm 0.00 in/hr0.0 mm/hr 0.00 in0.0 mm
12:07 AM 57.4°F14.1°C 54.3°F12.4°C 90% 4.0 mph WSW6.4 kmh WSW 9.0 mph14.5 kmh 29.81 in1009.5 mb 0.00 in0.0 mm 0.00 in/hr0.0 mm/hr 0.00 in0.0 mm
12:06 AM 57.2°F14.0°C 54.3°F12.4°C 90% 4.0 mph WSW6.4 kmh WSW 9.0 mph14.5 kmh 29.81 in1009.5 mb 0.00 in0.0 mm 0.00 in/hr0.0 mm/hr 0.00 in0.0 mm
12:05 AM 57.2°F14.0°C 54.3°F12.4°C 90% 4.0 mph WSW6.4 kmh WSW 9.0 mph14.5 kmh 29.80 in1009.1 mb 0.00 in0.0 mm 0.00 in/hr0.0 mm/hr 0.00 in0.0 mm
12:04 AM 57.4°F14.1°C 54.3°F12.4°C 90% 4.0 mph WSW6.4 kmh WSW 9.0 mph14.5 kmh 29.81 in1009.5 mb 0.00 in0.0 mm 0.00 in/hr0.0 mm/hr 0.00 in0.0 mm
12:03 AM 57.2°F14.0°C 54.3°F12.4°C 90% 4.0 mph WSW6.4 kmh WSW 9.0 mph14.5 kmh 29.81 in1009.5 mb 0.00 in0.0 mm 0.00 in/hr0.0 mm/hr 0.00 in0.0 mm
12:02 AM 57.2°F14.0°C 54.3°F12.4°C 90% 4.0 mph WSW6.4 kmh WSW 9.0 mph14.5 kmh 29.81 in1009.5 mb 0.00 in0.0 mm 0.00 in/hr0.0 mm/hr 0.00 in0.0 mm
12:01 AM 57.2°F14.0°C 54.3°F12.4°C 90% 4.0 mph SW6.4 kmh SW 9.0 mph14.5 kmh 29.81 in1009.5 mb 0.00 in0.0 mm 0.00 in/hr0.0 mm/hr 0.00 in0.0 mm
12:00 AM 57.4°F14.1°C 54.3°F12.4°C 90% 4.0 mph SW6.4 kmh SW 9.0 mph14.5 kmh 29.81 in1009.5 mb 0.00 in0.0 mm 0.00 in/hr0.0 mm/hr 0.00 in0.0 mm